Time,TemperatureF,DewpointF,PressureIn,WindDirection,WindDirectionDegrees,WindSpeedMPH,WindSpeedGustMPH,Humidity,HourlyPrecipIn,Conditions,Clouds,dailyrainin,SoftwareType,DateUTC
2013-08-06 00:00:00,73.7,67.9,29.95,South,175,0.0,6.0,82,0.00,,---,0.00,VWS V13.01,2013-08-06 04:00:00,
2013-08-06 00:01:00,73.8,67.6,29.95,South,175,0.0,6.0,81,0.00,,---,0.00,VWS V13.01,2013-08-06 04:01:00,
2013-08-06 00:02:00,73.8,67.6,29.95,SSW,209,1.0,6.0,81,0.00,,---,0.00,VWS V13.01,2013-08-06 04:02:00,
2013-08-06 00:06:00,74.0,67.8,29.95,SSW,209,0.0,4.0,81,0.00,,---,0.00,VWS V13.01,2013-08-06 04:06:00,
2013-08-06 00:07:00,74.0,67.8,29.95,SSW,209,0.0,4.0,81,0.00,,---,0.00,VWS V13.01,2013-08-06 04:07:00,
2013-08-06 00:11:00,74.1,67.9,29.95,South,180,0.0,6.0,81,0.00,,---,0.00,VWS V13.01,2013-08-06 04:11:00,
2013-08-06 00:12:00,74.1,67.9,29.95,SSE,164,0.0,6.0,81,0.00,,---,0.00,VWS V13.01,2013-08-06 04:12:00,
2013-08-06 00:16:00,74.1,67.9,29.94,South,169,0.0,6.0,81,0.00,,---,0.00,VWS V13.01,2013-08-06 04:16:00,
2013-08-06 00:17:00,74.1,67.9,29.94,SSE,168,0.0,6.0,81,0.00,,---,0.00,VWS V13.01,2013-08-06 04:17:00,
2013-08-06 00:21:00,74.1,67.9,29.94,SE,132,2.0,6.0,81,0.00,,---,0.00,VWS V13.01,2013-08-06 04:21:00,
2013-08-06 00:22:00,74.1,67.9,29.94,ESE,113,0.0,10.0,81,0.00,,---,0.00,VWS V13.01,2013-08-06 04:22:00,
2013-08-06 00:26:00,74.0,67.8,29.94,South,176,0.0,10.0,81,0.00,,---,0.00,VWS V13.01,2013-08-06 04:26:00,
2013-08-06 00:27:00,74.0,68.2,29.94,South,180,0.0,10.0,82,0.00,,---,0.00,VWS V13.01,2013-08-06 04:27:00,
2013-08-06 00:31:00,73.9,68.1,29.94,SSE,167,0.0,10.0,82,0.00,,---,0.00,VWS V13.01,2013-08-06 04:31:00,
2013-08-06 00:32:00,73.9,68.1,29.94,South,171,0.0,0.0,82,0.00,,---,0.00,VWS V13.01,2013-08-06 04:32:00,
2013-08-06 00:36:00,73.9,68.1,29.94,SSW,206,0.0,6.0,82,0.00,,---,0.00,VWS V13.01,2013-08-06 04:36:00,
2013-08-06 00:37:00,73.9,68.1,29.94,South,169,0.0,6.0,82,0.00,,---,0.00,VWS V13.01,2013-08-06 04:37:00,
2013-08-06 00:41:00,73.8,68.3,29.94,SSW,211,0.0,6.0,83,0.00,,---,0.00,VWS V13.01,2013-08-06 04:41:00,
2013-08-06 00:42:00,73.8,68.3,29.94,SSW,211,0.0,6.0,83,0.00,,---,0.00,VWS V13.01,2013-08-06 04:42:00,
2013-08-06 00:47:00,73.7,67.9,29.94,SSW,202,0.0,7.0,82,0.00,,---,0.00,VWS V13.01,2013-08-06 04:47:00,
2013-08-06 00:48:00,73.7,68.2,29.94,SSE,164,1.0,7.0,83,0.00,,---,0.00,VWS V13.01,2013-08-06 04:48:00,
2013-08-06 00:52:00,73.8,68.3,29.94,South,191,0.0,10.0,83,0.00,,---,0.00,VWS V13.01,2013-08-06 04:52:00,
2013-08-06 00:53:00,73.8,68.3,29.94,SSW,198,0.0,10.0,83,0.00,,---,0.00,VWS V13.01,2013-08-06 04:53:00,
2013-08-06 00:57:00,73.8,68.3,29.94,SSW,204,0.0,10.0,83,0.00,,---,0.00,VWS V13.01,2013-08-06 04:57:00,
2013-08-06 00:58:00,73.8,68.3,29.94,SSW,202,0.0,10.0,83,0.00,,---,0.00,VWS V13.01,2013-08-06 04:58:00,
2013-08-06 01:02:00,73.8,68.0,29.94,SSW,211,5.0,9.0,82,0.00,,---,0.00,VWS V13.01,2013-08-06 05:02:00,
2013-08-06 01:03:00,73.8,68.0,29.94,SW,224,6.0,9.0,82,0.00,,---,0.00,VWS V13.01,2013-08-06 05:03:00,
2013-08-06 01:07:00,73.9,68.1,29.94,SW,215,0.0,13.0,82,0.00,,---,0.00,VWS V13.01,2013-08-06 05:07:00,
2013-08-06 01:08:00,73.9,68.1,29.94,SW,214,0.0,13.0,82,0.00,,---,0.00,VWS V13.01,2013-08-06 05:08:00,
2013-08-06 01:12:00,74.0,68.2,29.94,WSW,240,0.0,13.0,82,0.00,,---,0.00,VWS V13.01,2013-08-06 05:12:00,
2013-08-06 01:13:00,74.0,68.2,29.94,WSW,240,0.0,13.0,82,0.00,,---,0.00,VWS V13.01,2013-08-06 05:13:00,
2013-08-06 01:17:00,74.0,67.8,29.94,SSE,150,0.0,13.0,81,0.00,,---,0.00,VWS V13.01,2013-08-06 05:17:00,
2013-08-06 01:18:00,74.0,67.8,29.94,SSE,150,0.0,13.0,81,0.00,,---,0.00,VWS V13.01,2013-08-06 05:18:00,
2013-08-06 01:22:00,74.0,67.8,29.94,SW,232,2.0,13.0,81,0.00,,---,0.00,VWS V13.01,2013-08-06 05:22:00,
2013-08-06 01:23:00,74.0,67.8,29.94,SSW,207,3.0,13.0,81,0.00,,---,0.00,VWS V13.01,2013-08-06 05:23:00,
2013-08-06 01:27:00,74.0,67.4,29.94,SSE,155,2.0,13.0,80,0.00,,---,0.00,VWS V13.01,2013-08-06 05:27:00,
2013-08-06 01:28:00,74.0,67.4,29.94,SW,218,5.0,13.0,80,0.00,,---,0.00,VWS V13.01,2013-08-06 05:28:00,
2013-08-06 01:29:00,74.0,67.4,29.94,SSW,192,0.0,13.0,80,0.00,,---,0.00,VWS V13.01,2013-08-06 05:29:00,
2013-08-06 01:32:00,74.0,67.4,29.93,SSW,195,0.0,9.0,80,0.00,,---,0.00,VWS V13.01,2013-08-06 05:32:00,
2013-08-06 01:33:00,74.0,67.4,29.93,South,181,0.0,9.0,80,0.00,,---,0.00,VWS V13.01,2013-08-06 05:33:00,
2013-08-06 01:34:00,74.0,67.4,29.93,South,182,0.0,9.0,80,0.00,,---,0.00,VWS V13.01,2013-08-06 05:34:00,
2013-08-06 01:37:00,73.9,67.3,29.93,SE,137,0.0,9.0,80,0.00,,---,0.00,VWS V13.01,2013-08-06 05:37:00,
2013-08-06 01:38:00,73.9,67.3,29.93,SW,230,0.0,9.0,80,0.00,,---,0.00,VWS V13.01,2013-08-06 05:38:00,
2013-08-06 01:39:00,73.8,67.2,29.93,SW,233,0.0,9.0,80,0.00,,---,0.00,VWS V13.01,2013-08-06 05:39:00,
2013-08-06 01:43:00,73.6,67.4,29.93,SSE,165,0.0,9.0,81,0.00,,---,0.00,VWS V13.01,2013-08-06 05:43:00,
2013-08-06 01:44:00,73.5,67.3,29.94,WSW,249,1.0,9.0,81,0.00,,---,0.00,VWS V13.01,2013-08-06 05:44:00,
2013-08-06 01:48:00,73.2,67.4,29.94,SSW,194,0.0,9.0,82,0.00,,---,0.00,VWS V13.01,2013-08-06 05:48:00,
2013-08-06 01:49:00,73.2,67.4,29.93,SSW,194,0.0,9.0,82,0.00,,---,0.00,VWS V13.01,2013-08-06 05:49:00,
2013-08-06 01:53:00,72.9,67.1,29.93,SW,231,0.0,10.0,82,0.00,,---,0.00,VWS V13.01,2013-08-06 05:53:00,
2013-08-06 01:54:00,72.9,67.1,29.93,SW,230,0.0,10.0,82,0.00,,---,0.00,VWS V13.01,2013-08-06 05:54:00,
2013-08-06 01:59:00,72.7,67.2,29.93,SSW,211,0.0,10.0,83,0.00,,---,0.00,VWS V13.01,2013-08-06 05:59:00,
2013-08-06 02:04:00,72.6,66.8,29.93,SSE,159,0.0,11.0,82,0.00,,---,0.00,VWS V13.01,2013-08-06 06:04:00,
2013-08-06 02:09:00,72.7,66.9,29.93,SSE,156,0.0,11.0,82,0.00,,---,0.00,VWS V13.01,2013-08-06 06:09:00,
2013-08-06 02:10:00,72.7,66.9,29.93,SW,231,0.0,11.0,82,0.00,,---,0.00,VWS V13.01,2013-08-06 06:10:00,
2013-08-06 02:14:00,72.7,66.9,29.93,SSW,205,3.0,11.0,82,0.00,,---,0.00,VWS V13.01,2013-08-06 06:14:00,
2013-08-06 02:15:00,72.7,66.9,29.94,South,189,6.0,11.0,82,0.00,,---,0.00,VWS V13.01,2013-08-06 06:15:00,
2013-08-06 02:19:00,72.7,66.9,29.93,SSW,213,0.0,11.0,82,0.00,,---,0.00,VWS V13.01,2013-08-06 06:19:00,
2013-08-06 02:20:00,72.6,66.8,29.93,SSW,213,0.0,11.0,82,0.00,,---,0.00,VWS V13.01,2013-08-06 06:20:00,
2013-08-06 02:24:00,72.4,66.9,29.93,SW,222,3.0,11.0,83,0.00,,---,0.00,VWS V13.01,2013-08-06 06:24:00,
2013-08-06 02:25:00,72.3,66.8,29.93,SSW,211,5.0,11.0,83,0.00,,---,0.00,VWS V13.01,2013-08-06 06:25:00,
2013-08-06 02:29:00,72.1,66.7,29.93,South,186,1.0,12.0,83,0.00,,---,0.00,VWS V13.01,2013-08-06 06:29:00,
2013-08-06 02:30:00,72.1,66.7,29.93,South,186,0.0,12.0,83,0.00,,---,0.00,VWS V13.01,2013-08-06 06:30:00,
2013-08-06 02:31:00,72.0,66.6,29.93,SW,228,0.0,13.0,83,0.00,,---,0.00,VWS V13.01,2013-08-06 06:31:00,
2013-08-06 02:34:00,72.0,66.2,29.93,SSW,209,0.0,5.0,82,0.00,,---,0.00,VWS V13.01,2013-08-06 06:34:00,
2013-08-06 02:35:00,72.0,66.2,29.93,SW,215,0.0,5.0,82,0.00,,---,0.00,VWS V13.01,2013-08-06 06:35:00,
2013-08-06 02:36:00,72.0,66.2,29.93,SW,215,0.0,5.0,82,0.00,,---,0.00,VWS V13.01,2013-08-06 06:36:00,
2013-08-06 02:39:00,72.0,66.2,29.94,WSW,245,0.0,5.0,82,0.00,,---,0.00,VWS V13.01,2013-08-06 06:39:00,
2013-08-06 02:40:00,72.0,66.2,29.94,SW,230,0.0,5.0,82,0.00,,---,0.00,VWS V13.01,2013-08-06 06:40:00,
2013-08-06 02:41:00,72.0,66.2,29.94,SW,230,0.0,5.0,82,0.00,,---,0.00,VWS V13.01,2013-08-06 06:41:00,
2013-08-06 02:44:00,72.1,66.3,29.94,WSW,251,0.0,10.0,82,0.00,,---,0.00,VWS V13.01,2013-08-06 06:44:00,
2013-08-06 02:45:00,72.1,66.3,29.93,WSW,251,0.0,10.0,82,0.00,,---,0.00,VWS V13.01,2013-08-06 06:45:00,
2013-08-06 02:46:00,72.1,66.3,29.94,WSW,250,0.0,10.0,82,0.00,,---,0.00,VWS V13.01,2013-08-06 06:46:00,
2013-08-06 02:47:00,72.1,66.3,29.94,SW,225,0.0,10.0,82,0.00,,---,0.00,VWS V13.01,2013-08-06 06:47:00,
2013-08-06 02:49:00,72.0,66.2,29.93,SW,227,0.0,10.0,82,0.00,,---,0.00,VWS V13.01,2013-08-06 06:49:00,
2013-08-06 02:50:00,72.0,66.6,29.93,South,184,0.0,10.0,83,0.00,,---,0.00,VWS V13.01,2013-08-06 06:50:00,
2013-08-06 02:51:00,72.0,66.6,29.93,South,190,4.0,10.0,83,0.00,,---,0.00,VWS V13.01,2013-08-06 06:51:00,
2013-08-06 02:52:00,71.9,66.5,29.93,South,191,0.0,10.0,83,0.00,,---,0.00,VWS V13.01,2013-08-06 06:52:00,
2013-08-06 02:54:00,71.9,66.5,29.93,SW,229,4.0,10.0,83,0.00,,---,0.00,VWS V13.01,2013-08-06 06:54:00,
2013-08-06 02:55:00,71.8,66.4,29.94,SW,227,0.0,10.0,83,0.00,,---,0.00,VWS V13.01,2013-08-06 06:55:00,
2013-08-06 02:56:00,71.8,66.4,29.94,SW,227,0.0,10.0,83,0.00,,---,0.00,VWS V13.01,2013-08-06 06:56:00,
2013-08-06 02:57:00,71.8,66.4,29.94,SW,227,1.0,10.0,83,0.00,,---,0.00,VWS V13.01,2013-08-06 06:57:00,
2013-08-06 02:59:00,71.8,66.4,29.94,SW,228,0.0,10.0,83,0.00,,---,0.00,VWS V13.01,2013-08-06 06:59:00,
2013-08-06 03:00:00,71.8,66.7,29.94,SW,230,0.0,10.0,84,0.00,,---,0.00,VWS V13.01,2013-08-06 07:00:00,
2013-08-06 03:01:00,71.8,66.7,29.94,WSW,256,5.0,10.0,84,0.00,,---,0.00,VWS V13.01,2013-08-06 07:01:00,
2013-08-06 03:02:00,71.8,66.7,29.94,WSW,250,1.0,5.0,84,0.00,,---,0.00,VWS V13.01,2013-08-06 07:02:00,
2013-08-06 03:05:00,71.7,66.9,29.94,NW,324,0.0,6.0,85,0.02,,---,0.03,VWS V13.01,2013-08-06 07:05:00,
2013-08-06 03:06:00,71.5,67.1,29.94,SW,224,0.0,6.0,86,0.04,,---,0.05,VWS V13.01,2013-08-06 07:06:00,
2013-08-06 03:07:00,71.4,67.3,29.94,SW,223,6.0,6.0,87,0.05,,---,0.06,VWS V13.01,2013-08-06 07:07:00,
2013-08-06 03:08:00,71.3,67.2,29.94,WNW,290,0.0,10.0,87,0.06,,---,0.06,VWS V13.01,2013-08-06 07:08:00,
2013-08-06 03:10:00,70.8,67.1,29.95,SSW,207,1.0,10.0,88,0.07,,---,0.08,VWS V13.01,2013-08-06 07:10:00,
2013-08-06 03:11:00,70.5,67.1,29.95,NNW,336,7.0,11.0,89,0.09,,---,0.11,VWS V13.01,2013-08-06 07:11:00,
2013-08-06 03:12:00,70.3,66.9,29.95,SSW,194,4.0,11.0,89,0.11,,---,0.13,VWS V13.01,2013-08-06 07:12:00,
2013-08-06 03:13:00,70.2,67.1,29.95,SSW,205,0.0,11.0,90,0.14,,---,0.15,VWS V13.01,2013-08-06 07:13:00,
2013-08-06 03:15:00,69.8,66.7,29.95,SSW,203,0.0,13.0,90,0.19,,---,0.20,VWS V13.01,2013-08-06 07:15:00,
2013-08-06 03:16:00,69.5,66.4,29.95,SW,227,0.0,13.0,90,0.22,,---,0.22,VWS V13.01,2013-08-06 07:16:00,
2013-08-06 03:17:00,69.4,66.7,29.95,SW,227,0.0,13.0,91,0.22,,---,0.23,VWS V13.01,2013-08-06 07:17:00,
2013-08-06 03:18:00,69.2,66.5,29.95,SW,227,0.0,13.0,91,0.23,,---,0.23,VWS V13.01,2013-08-06 07:18:00,
2013-08-06 03:20:00,68.9,66.5,29.95,West,266,0.0,13.0,92,0.23,,---,0.23,VWS V13.01,2013-08-06 07:20:00,
2013-08-06 03:21:00,68.9,66.5,29.95,West,266,0.0,13.0,92,0.23,,---,0.23,VWS V13.01,2013-08-06 07:21:00,
2013-08-06 03:22:00,68.8,66.7,29.95,West,259,0.0,13.0,93,0.24,,---,0.24,VWS V13.01,2013-08-06 07:22:00,
2013-08-06 03:23:00,68.8,66.7,29.95,West,267,0.0,13.0,93,0.24,,---,0.24,VWS V13.01,2013-08-06 07:23:00,
2013-08-06 03:25:00,68.6,66.5,29.95,SW,217,4.0,13.0,93,0.24,,---,0.24,VWS V13.01,2013-08-06 07:25:00,
2013-08-06 03:26:00,68.6,66.5,29.95,SW,219,0.0,13.0,93,0.24,,---,0.24,VWS V13.01,2013-08-06 07:26:00,
2013-08-06 03:27:00,68.5,66.7,29.95,South,185,0.0,13.0,94,0.24,,---,0.24,VWS V13.01,2013-08-06 07:27:00,
2013-08-06 03:28:00,68.5,66.7,29.95,SSE,161,0.0,13.0,94,0.24,,---,0.24,VWS V13.01,2013-08-06 07:28:00,
2013-08-06 03:30:00,68.4,66.6,29.95,SSW,212,0.0,13.0,94,0.24,,---,0.25,VWS V13.01,2013-08-06 07:30:00,
2013-08-06 03:31:00,68.3,66.5,29.95,SW,222,10.0,13.0,94,0.25,,---,0.25,VWS V13.01,2013-08-06 07:31:00,
2013-08-06 03:32:00,68.3,66.5,29.95,SW,232,0.0,2.0,94,0.25,,---,0.25,VWS V13.01,2013-08-06 07:32:00,
2013-08-06 03:33:00,68.3,66.5,29.95,SW,229,4.0,4.0,94,0.26,,---,0.26,VWS V13.01,2013-08-06 07:33:00,
2013-08-06 03:35:00,68.1,66.6,29.95,SW,222,0.0,5.0,95,0.26,,---,0.27,VWS V13.01,2013-08-06 07:35:00,
2013-08-06 03:36:00,68.1,66.6,29.95,SW,222,0.0,5.0,95,0.27,,---,0.27,VWS V13.01,2013-08-06 07:36:00,
2013-08-06 03:37:00,68.1,66.6,29.95,SW,222,0.0,5.0,95,0.27,,---,0.27,VWS V13.01,2013-08-06 07:37:00,
2013-08-06 03:38:00,68.1,66.6,29.95,SW,222,1.0,5.0,95,0.28,,---,0.28,VWS V13.01,2013-08-06 07:38:00,
2013-08-06 03:40:00,68.0,66.5,29.95,SW,225,0.0,5.0,95,0.32,,---,0.32,VWS V13.01,2013-08-06 07:40:00,
2013-08-06 03:41:00,68.0,66.5,29.96,SW,227,0.0,5.0,95,0.32,,---,0.34,VWS V13.01,2013-08-06 07:41:00,
2013-08-06 03:42:00,67.9,66.4,29.95,SW,227,0.0,5.0,95,0.34,,---,0.34,VWS V13.01,2013-08-06 07:42:00,
2013-08-06 03:43:00,67.9,66.4,29.95,West,279,2.0,6.0,95,0.35,,---,0.36,VWS V13.01,2013-08-06 07:43:00,
2013-08-06 03:45:00,67.6,66.1,29.95,WNW,282,0.0,12.0,95,0.40,,---,0.40,VWS V13.01,2013-08-06 07:45:00,
2013-08-06 03:46:00,67.5,66.0,29.95,West,263,5.0,12.0,95,0.40,,---,0.42,VWS V13.01,2013-08-06 07:46:00,
2013-08-06 03:47:00,67.5,66.0,29.95,West,263,0.0,12.0,95,0.42,,---,0.42,VWS V13.01,2013-08-06 07:47:00,
2013-08-06 03:48:00,67.2,65.4,29.95,WNW,291,1.0,12.0,94,0.44,,---,0.45,VWS V13.01,2013-08-06 07:48:00,
2013-08-06 03:51:00,66.9,65.4,29.96,SSW,211,5.0,12.0,95,0.50,,---,0.50,VWS V13.01,2013-08-06 07:51:00,
2013-08-06 03:52:00,66.8,65.3,29.96,SW,215,0.0,12.0,95,0.51,,---,0.51,VWS V13.01,2013-08-06 07:52:00,
2013-08-06 03:53:00,66.5,65.0,29.96,SSW,198,1.0,12.0,95,0.51,,---,0.51,VWS V13.01,2013-08-06 07:53:00,
2013-08-06 03:54:00,66.5,65.0,29.96,SSW,195,11.0,12.0,95,0.51,,---,0.51,VWS V13.01,2013-08-06 07:54:00,
2013-08-06 03:56:00,66.3,64.8,29.96,South,190,0.0,12.0,95,0.52,,---,0.53,VWS V13.01,2013-08-06 07:56:00,
2013-08-06 03:57:00,66.1,64.6,29.96,South,190,0.0,12.0,95,0.53,,---,0.54,VWS V13.01,2013-08-06 07:57:00,
2013-08-06 03:58:00,66.0,64.5,29.96,SSE,167,1.0,12.0,95,0.54,,---,0.54,VWS V13.01,2013-08-06 07:58:00,
2013-08-06 03:59:00,66.0,64.5,29.96,SSE,167,0.0,12.0,95,0.54,,---,0.54,VWS V13.01,2013-08-06 07:59:00,
2013-08-06 04:01:00,65.8,64.3,29.96,SSE,157,0.0,12.0,95,0.54,,---,0.54,VWS V13.01,2013-08-06 08:01:00,
2013-08-06 04:02:00,65.8,64.3,29.96,SSE,157,0.0,0.0,95,0.55,,---,0.55,VWS V13.01,2013-08-06 08:02:00,
2013-08-06 04:04:00,65.7,64.2,29.96,SSE,159,0.0,6.0,95,0.56,,---,0.56,VWS V13.01,2013-08-06 08:04:00,
2013-08-06 04:06:00,65.7,64.5,29.96,SSE,159,0.0,6.0,96,0.57,,---,0.57,VWS V13.01,2013-08-06 08:06:00,
2013-08-06 04:07:00,65.6,64.4,29.96,SSE,159,0.0,6.0,96,0.57,,---,0.57,VWS V13.01,2013-08-06 08:07:00,
2013-08-06 04:09:00,65.6,64.4,29.96,SSE,159,0.0,6.0,96,0.58,,---,0.58,VWS V13.01,2013-08-06 08:09:00,
2013-08-06 04:11:00,65.6,64.4,29.96,SSE,159,0.0,6.0,96,0.59,,---,0.59,VWS V13.01,2013-08-06 08:11:00,
2013-08-06 04:12:00,65.6,64.4,29.96,SSE,159,0.0,6.0,96,0.60,,---,0.60,VWS V13.01,2013-08-06 08:12:00,
2013-08-06 04:14:00,65.7,64.5,29.96,South,180,2.0,6.0,96,0.61,,---,0.61,VWS V13.01,2013-08-06 08:14:00,
2013-08-06 04:16:00,65.7,64.5,29.96,South,181,0.0,9.0,96,0.62,,---,0.62,VWS V13.01,2013-08-06 08:16:00,
2013-08-06 04:17:00,65.8,64.6,29.96,SW,217,6.0,9.0,96,0.62,,---,0.62,VWS V13.01,2013-08-06 08:17:00,
2013-08-06 04:18:00,65.8,64.6,29.96,SW,226,2.0,9.0,96,0.63,,---,0.63,VWS V13.01,2013-08-06 08:18:00,
2013-08-06 04:19:00,65.6,64.4,29.96,SSW,192,1.0,9.0,96,0.63,,---,0.63,VWS V13.01,2013-08-06 08:19:00,
2013-08-06 04:21:00,65.5,64.3,29.96,South,183,1.0,9.0,96,0.64,,---,0.64,VWS V13.01,2013-08-06 08:21:00,
2013-08-06 04:22:00,65.5,64.3,29.96,South,180,2.0,9.0,96,0.64,,---,0.64,VWS V13.01,2013-08-06 08:22:00,
2013-08-06 04:23:00,65.5,64.3,29.96,South,178,0.0,9.0,96,0.65,,---,0.65,VWS V13.01,2013-08-06 08:23:00,
2013-08-06 04:24:00,65.4,64.2,29.96,South,178,0.0,9.0,96,0.65,,---,0.65,VWS V13.01,2013-08-06 08:24:00,
2013-08-06 04:27:00,65.3,64.1,29.96,South,187,5.0,9.0,96,0.66,,---,0.66,VWS V13.01,2013-08-06 08:27:00,
2013-08-06 04:28:00,65.3,64.1,29.96,SSW,194,0.0,9.0,96,0.66,,---,0.66,VWS V13.01,2013-08-06 08:28:00,
2013-08-06 04:29:00,65.2,64.0,29.96,SSW,207,4.0,9.0,96,0.66,,---,0.66,VWS V13.01,2013-08-06 08:29:00,
2013-08-06 04:30:00,65.2,64.0,29.96,SSW,208,2.0,9.0,96,0.66,,---,0.66,VWS V13.01,2013-08-06 08:30:00,
2013-08-06 04:32:00,65.1,63.9,29.96,SSW,208,0.0,0.0,96,0.66,,---,0.67,VWS V13.01,2013-08-06 08:32:00,
2013-08-06 04:33:00,65.1,63.9,29.96,SSW,208,0.0,0.0,96,0.42,,---,0.67,VWS V13.01,2013-08-06 08:33:00,
2013-08-06 04:35:00,65.0,63.8,29.96,SSW,209,1.0,3.0,96,0.42,,---,0.67,VWS V13.01,2013-08-06 08:35:00,
2013-08-06 04:37:00,65.0,63.8,29.97,WSW,244,0.0,7.0,96,0.42,,---,0.67,VWS V13.01,2013-08-06 08:37:00,
2013-08-06 04:38:00,65.0,63.8,29.96,South,180,3.0,7.0,96,0.43,,---,0.68,VWS V13.01,2013-08-06 08:38:00,
2013-08-06 04:40:00,65.0,64.1,29.97,WSW,254,0.0,7.0,97,0.43,,---,0.68,VWS V13.01,2013-08-06 08:40:00,
2013-08-06 04:42:00,65.0,63.8,29.97,WSW,250,0.0,7.0,96,0.43,,---,0.68,VWS V13.01,2013-08-06 08:42:00,
2013-08-06 04:43:00,65.0,63.8,29.97,WSW,240,0.0,7.0,96,0.43,,---,0.68,VWS V13.01,2013-08-06 08:43:00,
2013-08-06 04:45:00,65.0,63.8,29.97,WSW,240,0.0,7.0,96,0.43,,---,0.68,VWS V13.01,2013-08-06 08:45:00,
2013-08-06 04:47:00,65.0,63.8,29.96,WSW,240,0.0,7.0,96,0.43,,---,0.68,VWS V13.01,2013-08-06 08:47:00,
2013-08-06 04:49:00,65.0,64.1,29.96,SSW,202,3.0,7.0,97,0.43,,---,0.68,VWS V13.01,2013-08-06 08:49:00,
2013-08-06 04:50:00,65.0,64.1,29.96,SSW,203,0.0,7.0,97,0.43,,---,0.68,VWS V13.01,2013-08-06 08:50:00,
2013-08-06 04:52:00,65.0,63.8,29.96,SSW,208,3.0,7.0,96,0.43,,---,0.68,VWS V13.01,2013-08-06 08:52:00,
2013-08-06 04:54:00,65.0,63.8,29.96,SSW,209,0.0,7.0,96,0.43,,---,0.68,VWS V13.01,2013-08-06 08:54:00,
2013-08-06 04:55:00,64.9,63.7,29.96,SSW,210,0.0,7.0,96,0.43,,---,0.68,VWS V13.01,2013-08-06 08:55:00,
2013-08-06 04:57:00,64.8,63.6,29.96,SW,214,0.0,7.0,96,0.43,,---,0.68,VWS V13.01,2013-08-06 08:57:00,
2013-08-06 04:58:00,64.8,63.6,29.96,SSW,213,3.0,7.0,96,0.43,,---,0.68,VWS V13.01,2013-08-06 08:58:00,
2013-08-06 04:59:00,64.8,63.6,29.96,SW,216,2.0,7.0,96,0.43,,---,0.68,VWS V13.01,2013-08-06 08:59:00,
2013-08-06 05:00:00,64.7,63.5,29.96,SW,215,3.0,7.0,96,0.43,,---,0.68,VWS V13.01,2013-08-06 09:00:00,
2013-08-06 05:02:00,64.6,63.4,29.96,SW,214,0.0,0.0,96,0.43,,---,0.68,VWS V13.01,2013-08-06 09:02:00,
2013-08-06 05:03:00,64.6,63.4,29.96,SW,214,3.0,4.0,96,0.13,,---,0.68,VWS V13.01,2013-08-06 09:03:00,
2013-08-06 05:04:00,64.5,63.3,29.96,West,270,2.0,13.0,96,0.13,,---,0.68,VWS V13.01,2013-08-06 09:04:00,
2013-08-06 05:05:00,64.4,63.2,29.96,SSW,209,0.0,13.0,96,0.13,,---,0.68,VWS V13.01,2013-08-06 09:05:00,
2013-08-06 05:06:00,64.4,63.2,29.96,SSW,205,0.0,13.0,96,0.13,,---,0.68,VWS V13.01,2013-08-06 09:06:00,
2013-08-06 05:08:00,64.3,63.1,29.96,SSW,201,0.0,13.0,96,0.13,,---,0.68,VWS V13.01,2013-08-06 09:08:00,
2013-08-06 05:09:00,64.3,63.1,29.96,SSW,200,0.0,13.0,96,0.13,,---,0.68,VWS V13.01,2013-08-06 09:09:00,
2013-08-06 05:10:00,64.2,63.0,29.96,SSW,196,0.0,13.0,96,0.13,,---,0.68,VWS V13.01,2013-08-06 09:10:00,
2013-08-06 05:11:00,64.2,63.0,29.96,SSW,206,4.0,13.0,96,0.13,,---,0.68,VWS V13.01,2013-08-06 09:11:00,
2013-08-06 05:13:00,64.2,63.0,29.96,SSW,200,0.0,13.0,96,0.14,,---,0.69,VWS V13.01,2013-08-06 09:13:00,
2013-08-06 05:14:00,64.2,63.0,29.96,SSW,209,0.0,13.0,96,0.14,,---,0.69,VWS V13.01,2013-08-06 09:14:00,
2013-08-06 05:15:00,64.1,62.9,29.97,SW,220,0.0,13.0,96,0.14,,---,0.69,VWS V13.01,2013-08-06 09:15:00,
2013-08-06 05:16:00,64.1,62.9,29.97,SW,220,0.0,13.0,96,0.14,,---,0.69,VWS V13.01,2013-08-06 09:16:00,
2013-08-06 05:18:00,64.0,62.8,29.97,South,169,0.0,13.0,96,0.14,,---,0.69,VWS V13.01,2013-08-06 09:18:00,
2013-08-06 05:19:00,64.0,62.8,29.97,South,175,1.0,13.0,96,0.14,,---,0.69,VWS V13.01,2013-08-06 09:19:00,
2013-08-06 05:20:00,63.9,62.7,29.97,SW,222,3.0,13.0,96,0.14,,---,0.69,VWS V13.01,2013-08-06 09:20:00,
2013-08-06 05:21:00,63.9,62.7,29.97,SW,230,2.0,13.0,96,0.14,,---,0.69,VWS V13.01,2013-08-06 09:21:00,
2013-08-06 05:23:00,63.9,62.7,29.97,SW,230,0.0,13.0,96,0.14,,---,0.69,VWS V13.01,2013-08-06 09:23:00,
2013-08-06 05:25:00,63.9,62.7,29.97,SW,218,0.0,13.0,96,0.14,,---,0.69,VWS V13.01,2013-08-06 09:25:00,
2013-08-06 05:26:00,63.9,63.0,29.97,SSW,209,0.0,13.0,97,0.15,,---,0.70,VWS V13.01,2013-08-06 09:26:00,
2013-08-06 05:28:00,63.9,63.0,29.97,SSW,209,0.0,13.0,97,0.15,,---,0.70,VWS V13.01,2013-08-06 09:28:00,
2013-08-06 05:30:00,63.9,63.0,29.97,SSW,207,0.0,13.0,97,0.15,,---,0.70,VWS V13.01,2013-08-06 09:30:00,
2013-08-06 05:31:00,63.9,63.0,29.97,WSW,238,0.0,13.0,97,0.15,,---,0.70,VWS V13.01,2013-08-06 09:31:00,
2013-08-06 05:33:00,63.9,63.0,29.97,SW,218,0.0,6.0,97,0.04,,---,0.70,VWS V13.01,2013-08-06 09:33:00,
2013-08-06 05:34:00,64.0,63.1,29.97,SW,219,0.0,6.0,97,0.04,,---,0.70,VWS V13.01,2013-08-06 09:34:00,
2013-08-06 05:35:00,64.0,63.1,29.97,SW,219,0.0,6.0,97,0.04,,---,0.70,VWS V13.01,2013-08-06 09:35:00,
2013-08-06 05:36:00,64.0,63.1,29.97,SW,219,0.0,6.0,97,0.04,,---,0.70,VWS V13.01,2013-08-06 09:36:00,
2013-08-06 05:38:00,64.0,63.1,29.97,SW,219,0.0,6.0,97,0.04,,---,0.70,VWS V13.01,2013-08-06 09:38:00,
2013-08-06 05:39:00,64.0,63.1,29.97,SW,218,0.0,6.0,97,0.04,,---,0.70,VWS V13.01,2013-08-06 09:39:00,
2013-08-06 05:40:00,64.0,63.1,29.97,SW,219,0.0,6.0,97,0.04,,---,0.70,VWS V13.01,2013-08-06 09:40:00,
2013-08-06 05:41:00,64.0,63.1,29.97,SW,219,3.0,6.0,97,0.04,,---,0.70,VWS V13.01,2013-08-06 09:41:00,
2013-08-06 05:44:00,63.9,63.0,29.96,SW,214,1.0,6.0,97,0.04,,---,0.70,VWS V13.01,2013-08-06 09:44:00,
2013-08-06 05:45:00,63.9,63.0,29.96,SSW,205,0.0,6.0,97,0.04,,---,0.70,VWS V13.01,2013-08-06 09:45:00,
2013-08-06 05:46:00,64.0,63.1,29.96,SSW,205,0.0,6.0,97,0.04,,---,0.70,VWS V13.01,2013-08-06 09:46:00,
2013-08-06 05:49:00,63.9,63.0,29.96,SSW,205,0.0,6.0,97,0.04,,---,0.70,VWS V13.01,2013-08-06 09:49:00,
2013-08-06 05:50:00,63.9,63.0,29.96,SSW,205,0.0,6.0,97,0.04,,---,0.70,VWS V13.01,2013-08-06 09:50:00,
2013-08-06 05:51:00,63.9,63.0,29.96,SSW,205,0.0,6.0,97,0.04,,---,0.70,VWS V13.01,2013-08-06 09:51:00,
2013-08-06 05:54:00,63.9,63.0,29.96,SSW,204,0.0,6.0,97,0.04,,---,0.70,VWS V13.01,2013-08-06 09:54:00,
2013-08-06 05:56:00,63.8,62.9,29.96,SSW,204,0.0,6.0,97,0.04,,---,0.70,VWS V13.01,2013-08-06 09:56:00,
2013-08-06 05:59:00,63.8,62.9,29.96,SSW,203,0.0,6.0,97,0.04,,---,0.70,VWS V13.01,2013-08-06 09:59:00,
2013-08-06 06:01:00,63.9,63.0,29.96,SSW,204,0.0,6.0,97,0.04,,---,0.70,VWS V13.01,2013-08-06 10:01:00,
2013-08-06 06:02:00,63.8,62.9,29.96,SSW,204,0.0,0.0,97,0.04,,---,0.70,VWS V13.01,2013-08-06 10:02:00,
2013-08-06 06:04:00,63.9,63.0,29.96,SSW,204,0.0,0.0,97,0.02,,---,0.70,VWS V13.01,2013-08-06 10:04:00,
2013-08-06 06:06:00,63.8,62.9,29.96,SSW,203,0.0,0.0,97,0.02,,---,0.70,VWS V13.01,2013-08-06 10:06:00,
2013-08-06 06:07:00,63.8,62.9,29.96,SSW,204,0.0,0.0,97,0.02,,---,0.70,VWS V13.01,2013-08-06 10:07:00,
2013-08-06 06:09:00,63.8,62.9,29.96,SSW,204,0.0,0.0,97,0.02,,---,0.70,VWS V13.01,2013-08-06 10:09:00,
2013-08-06 06:11:00,63.8,62.9,29.96,SSW,203,0.0,0.0,97,0.02,,---,0.70,VWS V13.01,2013-08-06 10:11:00,
2013-08-06 06:12:00,63.8,62.9,29.96,SSW,204,0.0,0.0,97,0.02,,---,0.70,VWS V13.01,2013-08-06 10:12:00,
2013-08-06 06:14:00,63.9,63.0,29.96,SSW,203,0.0,0.0,97,0.02,,---,0.70,VWS V13.01,2013-08-06 10:14:00,
2013-08-06 06:15:00,63.9,63.0,29.96,SSW,204,0.0,0.0,97,0.02,,---,0.70,VWS V13.01,2013-08-06 10:15:00,
2013-08-06 06:16:00,64.0,63.1,29.96,SSW,203,0.0,0.0,97,0.02,,---,0.70,VWS V13.01,2013-08-06 10:16:00,
2013-08-06 06:17:00,64.0,63.1,29.96,SSW,204,0.0,0.0,97,0.02,,---,0.70,VWS V13.01,2013-08-06 10:17:00,
2013-08-06 06:19:00,64.0,63.4,29.96,SSW,204,0.0,4.0,98,0.02,,---,0.70,VWS V13.01,2013-08-06 10:19:00,
2013-08-06 06:20:00,64.0,63.4,29.96,SSW,203,0.0,4.0,98,0.02,,---,0.70,VWS V13.01,2013-08-06 10:20:00,
2013-08-06 06:21:00,64.1,63.5,29.96,SSW,204,0.0,4.0,98,0.02,,---,0.70,VWS V13.01,2013-08-06 10:21:00,
2013-08-06 06:22:00,64.1,63.5,29.96,SSW,203,0.0,4.0,98,0.02,,---,0.70,VWS V13.01,2013-08-06 10:22:00,
2013-08-06 06:24:00,64.1,63.5,29.96,SSW,204,0.0,4.0,98,0.02,,---,0.70,VWS V13.01,2013-08-06 10:24:00,
2013-08-06 06:25:00,64.1,63.5,29.96,SSW,203,0.0,4.0,98,0.02,,---,0.70,VWS V13.01,2013-08-06 10:25:00,
2013-08-06 06:27:00,64.1,63.5,29.96,SSW,204,0.0,4.0,98,0.02,,---,0.70,VWS V13.01,2013-08-06 10:27:00,
2013-08-06 06:28:00,64.2,63.6,29.96,SSW,204,0.0,4.0,98,0.02,,---,0.70,VWS V13.01,2013-08-06 10:28:00,
2013-08-06 06:29:00,64.2,63.6,29.96,SSW,203,0.0,4.0,98,0.02,,---,0.70,VWS V13.01,2013-08-06 10:29:00,
2013-08-06 06:30:00,64.2,63.6,29.96,SSW,204,3.0,4.0,98,0.02,,---,0.70,VWS V13.01,2013-08-06 10:30:00,
2013-08-06 06:32:00,64.2,63.6,29.96,SSW,204,0.0,0.0,98,0.02,,---,0.70,VWS V13.01,2013-08-06 10:32:00,
2013-08-06 06:33:00,64.2,63.6,29.96,SSW,204,0.0,0.0,98,0.00,,---,0.70,VWS V13.01,2013-08-06 10:33:00,
2013-08-06 06:34:00,64.2,63.6,29.96,SSW,203,0.0,0.0,98,0.00,,---,0.70,VWS V13.01,2013-08-06 10:34:00,
2013-08-06 06:36:00,64.2,63.6,29.96,SSW,204,0.0,0.0,98,0.00,,---,0.70,VWS V13.01,2013-08-06 10:36:00,
2013-08-06 06:37:00,64.2,63.6,29.96,SSW,203,0.0,0.0,98,0.00,,---,0.70,VWS V13.01,2013-08-06 10:37:00,
2013-08-06 06:38:00,64.2,63.6,29.96,SSW,204,0.0,0.0,98,0.00,,---,0.70,VWS V13.01,2013-08-06 10:38:00,
2013-08-06 06:40:00,64.3,63.7,29.96,SSW,204,0.0,0.0,98,0.00,,---,0.70,VWS V13.01,2013-08-06 10:40:00,
2013-08-06 06:41:00,64.3,63.7,29.96,SSW,204,0.0,0.0,98,0.00,,---,0.70,VWS V13.01,2013-08-06 10:41:00,
2013-08-06 06:42:00,64.3,63.7,29.97,SSW,204,0.0,1.0,98,0.00,,---,0.70,VWS V13.01,2013-08-06 10:42:00,
2013-08-06 06:43:00,64.3,63.7,29.96,SSW,203,0.0,1.0,98,0.00,,---,0.70,VWS V13.01,2013-08-06 10:43:00,
2013-08-06 06:45:00,64.4,63.8,29.96,SSW,204,0.0,1.0,98,0.00,,---,0.70,VWS V13.01,2013-08-06 10:45:00,
2013-08-06 06:46:00,64.5,63.9,29.96,SSW,204,0.0,1.0,98,0.00,,---,0.70,VWS V13.01,2013-08-06 10:46:00,
2013-08-06 06:47:00,64.5,63.9,29.96,SSW,203,0.0,1.0,98,0.00,,---,0.70,VWS V13.01,2013-08-06 10:47:00,
2013-08-06 06:48:00,64.5,63.9,29.96,SSW,203,1.0,5.0,98,0.00,,---,0.70,VWS V13.01,2013-08-06 10:48:00,
2013-08-06 06:50:00,64.5,63.9,29.96,SSW,203,0.0,5.0,98,0.00,,---,0.70,VWS V13.01,2013-08-06 10:50:00,
2013-08-06 06:51:00,64.6,64.0,29.96,SSW,203,0.0,5.0,98,0.00,,---,0.70,VWS V13.01,2013-08-06 10:51:00,
2013-08-06 06:52:00,64.6,64.0,29.96,SSW,203,0.0,5.0,98,0.00,,---,0.70,VWS V13.01,2013-08-06 10:52:00,
2013-08-06 06:53:00,64.6,64.0,29.96,SSW,203,0.0,5.0,98,0.00,,---,0.70,VWS V13.01,2013-08-06 10:53:00,
2013-08-06 06:55:00,64.6,64.0,29.97,SSW,203,0.0,5.0,98,0.00,,---,0.70,VWS V13.01,2013-08-06 10:55:00,
2013-08-06 06:56:00,64.5,63.9,29.97,SSW,203,0.0,5.0,98,0.00,,---,0.70,VWS V13.01,2013-08-06 10:56:00,
2013-08-06 06:57:00,64.6,64.0,29.97,SSW,203,0.0,5.0,98,0.00,,---,0.70,VWS V13.01,2013-08-06 10:57:00,
2013-08-06 06:58:00,64.6,64.0,29.97,SSW,203,0.0,5.0,98,0.00,,---,0.70,VWS V13.01,2013-08-06 10:58:00,
2013-08-06 07:01:00,64.7,64.1,29.97,SSW,203,0.0,5.0,98,0.00,,---,0.70,VWS V13.01,2013-08-06 11:01:00,
2013-08-06 07:02:00,64.7,64.1,29.97,SSW,203,0.0,0.0,98,0.00,,---,0.70,VWS V13.01,2013-08-06 11:02:00,
2013-08-06 07:03:00,64.7,64.1,29.97,SSW,203,0.0,0.0,98,0.00,,---,0.70,VWS V13.01,2013-08-06 11:03:00,
2013-08-06 07:06:00,64.8,64.2,29.97,SSW,203,0.0,1.0,98,0.00,,---,0.70,VWS V13.01,2013-08-06 11:06:00,
2013-08-06 07:07:00,64.8,64.2,29.97,SSW,203,1.0,2.0,98,0.00,,---,0.70,VWS V13.01,2013-08-06 11:07:00,
2013-08-06 07:08:00,64.8,64.2,29.97,SSW,203,0.0,2.0,98,0.00,,---,0.70,VWS V13.01,2013-08-06 11:08:00,
2013-08-06 07:09:00,64.8,64.2,29.97,SSW,203,0.0,2.0,98,0.00,,---,0.70,VWS V13.01,2013-08-06 11:09:00,
2013-08-06 07:11:00,64.9,64.3,29.97,SSW,203,0.0,2.0,98,0.00,,---,0.70,VWS V13.01,2013-08-06 11:11:00,
2013-08-06 07:12:00,65.0,64.4,29.97,SSW,203,0.0,2.0,98,0.00,,---,0.70,VWS V13.01,2013-08-06 11:12:00,
2013-08-06 07:13:00,64.9,64.3,29.97,SSW,203,5.0,5.0,98,0.00,,---,0.70,VWS V13.01,2013-08-06 11:13:00,
2013-08-06 07:14:00,64.9,64.3,29.97,SSW,203,0.0,5.0,98,0.00,,---,0.70,VWS V13.01,2013-08-06 11:14:00,
2013-08-06 07:16:00,65.0,64.4,29.97,SSW,203,0.0,5.0,98,0.00,,---,0.70,VWS V13.01,2013-08-06 11:16:00,
2013-08-06 07:17:00,65.0,64.4,29.97,SSW,203,0.0,5.0,98,0.00,,---,0.70,VWS V13.01,2013-08-06 11:17:00,
2013-08-06 07:18:00,65.0,64.4,29.97,SSW,203,0.0,5.0,98,0.00,,---,0.70,VWS V13.01,2013-08-06 11:18:00,
2013-08-06 07:19:00,65.0,64.4,29.97,SSW,203,0.0,5.0,98,0.00,,---,0.70,VWS V13.01,2013-08-06 11:19:00,
2013-08-06 07:21:00,65.1,64.5,29.97,SSW,203,0.0,5.0,98,0.00,,---,0.70,VWS V13.01,2013-08-06 11:21:00,
2013-08-06 07:22:00,65.1,64.5,29.97,SSW,203,0.0,5.0,98,0.00,,---,0.70,VWS V13.01,2013-08-06 11:22:00,
2013-08-06 07:23:00,65.1,64.5,29.97,SSW,203,0.0,5.0,98,0.00,,---,0.70,VWS V13.01,2013-08-06 11:23:00,
2013-08-06 07:24:00,65.1,64.5,29.98,SSW,203,0.0,5.0,98,0.00,,---,0.70,VWS V13.01,2013-08-06 11:24:00,
2013-08-06 07:26:00,65.2,64.6,29.98,SSW,203,0.0,5.0,98,0.00,,---,0.70,VWS V13.01,2013-08-06 11:26:00,
2013-08-06 07:28:00,65.2,64.6,29.98,SSW,203,0.0,5.0,98,0.00,,---,0.70,VWS V13.01,2013-08-06 11:28:00,
2013-08-06 07:29:00,65.3,64.7,29.98,SSW,203,0.0,5.0,98,0.00,,---,0.70,VWS V13.01,2013-08-06 11:29:00,
2013-08-06 07:32:00,65.4,64.8,29.98,SSW,203,0.0,0.0,98,0.00,,---,0.70,VWS V13.01,2013-08-06 11:32:00,
2013-08-06 07:33:00,65.4,64.8,29.98,SSW,203,0.0,0.0,98,0.00,,---,0.70,VWS V13.01,2013-08-06 11:33:00,
2013-08-06 07:34:00,65.4,64.8,29.98,SSW,203,0.0,0.0,98,0.00,,---,0.70,VWS V13.01,2013-08-06 11:34:00,
2013-08-06 07:37:00,65.6,65.0,29.98,SSW,203,0.0,0.0,98,0.00,,---,0.70,VWS V13.01,2013-08-06 11:37:00,
2013-08-06 07:38:00,65.6,65.0,29.98,SSW,203,0.0,0.0,98,0.00,,---,0.70,VWS V13.01,2013-08-06 11:38:00,
2013-08-06 07:39:00,65.6,65.0,29.98,SSW,203,0.0,0.0,98,0.00,,---,0.70,VWS V13.01,2013-08-06 11:39:00,
2013-08-06 07:42:00,65.6,65.0,29.98,SSW,203,0.0,3.0,98,0.00,,---,0.70,VWS V13.01,2013-08-06 11:42:00,
2013-08-06 07:43:00,65.7,65.1,29.98,SSW,203,0.0,3.0,98,0.00,,---,0.70,VWS V13.01,2013-08-06 11:43:00,
2013-08-06 07:44:00,65.7,65.1,29.98,SSW,203,0.0,3.0,98,0.00,,---,0.70,VWS V13.01,2013-08-06 11:44:00,
2013-08-06 07:47:00,65.8,65.2,29.98,SSW,204,0.0,5.0,98,0.00,,---,0.70,VWS V13.01,2013-08-06 11:47:00,
2013-08-06 07:48:00,65.9,65.3,29.98,SSW,203,0.0,5.0,98,0.00,,---,0.70,VWS V13.01,2013-08-06 11:48:00,
2013-08-06 07:49:00,65.9,65.3,29.98,SSW,204,0.0,5.0,98,0.00,,---,0.70,VWS V13.01,2013-08-06 11:49:00,
2013-08-06 07:50:00,65.9,65.3,29.98,SSW,202,4.0,5.0,98,0.00,,---,0.70,VWS V13.01,2013-08-06 11:50:00,
2013-08-06 07:52:00,65.8,65.2,29.98,SSW,198,0.0,5.0,98,0.00,,---,0.70,VWS V13.01,2013-08-06 11:52:00,
2013-08-06 07:53:00,65.8,65.2,29.98,SSW,198,0.0,5.0,98,0.00,,---,0.70,VWS V13.01,2013-08-06 11:53:00,
2013-08-06 07:55:00,65.9,65.3,29.98,SSW,198,0.0,5.0,98,0.00,,---,0.70,VWS V13.01,2013-08-06 11:55:00,
2013-08-06 07:57:00,66.0,65.4,29.98,SSW,200,0.0,5.0,98,0.00,,---,0.70,VWS V13.01,2013-08-06 11:57:00,
2013-08-06 07:58:00,66.1,65.5,29.98,SSW,200,0.0,5.0,98,0.00,,---,0.70,VWS V13.01,2013-08-06 11:58:00,
2013-08-06 07:59:00,66.0,65.4,29.98,SSW,198,3.0,5.0,98,0.00,,---,0.70,VWS V13.01,2013-08-06 11:59:00,
2013-08-06 08:00:00,66.1,65.5,29.98,SSW,198,3.0,5.0,98,0.00,,---,0.70,VWS V13.01,2013-08-06 12:00:00,
2013-08-06 08:03:00,66.1,65.5,29.98,SSW,198,0.0,1.0,98,0.00,,---,0.70,VWS V13.01,2013-08-06 12:03:00,
2013-08-06 08:04:00,66.1,65.5,29.98,SSW,198,0.0,1.0,98,0.00,,---,0.70,VWS V13.01,2013-08-06 12:04:00,
2013-08-06 08:05:00,66.1,65.5,29.98,SSW,198,0.0,1.0,98,0.00,,---,0.70,VWS V13.01,2013-08-06 12:05:00,
2013-08-06 08:06:00,66.2,65.6,29.98,SSW,198,1.0,1.0,98,0.00,,---,0.70,VWS V13.01,2013-08-06 12:06:00,
2013-08-06 08:08:00,66.2,65.6,29.98,SSW,198,1.0,3.0,98,0.00,,---,0.70,VWS V13.01,2013-08-06 12:08:00,
2013-08-06 08:09:00,66.2,65.6,29.98,SSW,198,0.0,3.0,98,0.00,,---,0.70,VWS V13.01,2013-08-06 12:09:00,
2013-08-06 08:10:00,66.2,65.6,29.98,SSW,198,0.0,3.0,98,0.00,,---,0.70,VWS V13.01,2013-08-06 12:10:00,
2013-08-06 08:11:00,66.2,65.6,29.98,SSW,198,0.0,3.0,98,0.00,,---,0.70,VWS V13.01,2013-08-06 12:11:00,
2013-08-06 08:13:00,66.3,65.7,29.98,SSW,198,0.0,3.0,98,0.00,,---,0.70,VWS V13.01,2013-08-06 12:13:00,
2013-08-06 08:14:00,66.3,65.7,29.98,SSW,198,0.0,3.0,98,0.00,,---,0.70,VWS V13.01,2013-08-06 12:14:00,
2013-08-06 08:15:00,66.4,65.8,29.98,SSW,198,0.0,3.0,98,0.00,,---,0.70,VWS V13.01,2013-08-06 12:15:00,
2013-08-06 08:16:00,66.5,65.9,29.98,SSW,198,0.0,3.0,98,0.00,,---,0.70,VWS V13.01,2013-08-06 12:16:00,
2013-08-06 08:18:00,66.5,65.9,29.98,SSW,198,0.0,5.0,98,0.00,,---,0.70,VWS V13.01,2013-08-06 12:18:00,
2013-08-06 08:19:00,66.5,65.9,29.99,SSW,198,0.0,5.0,98,0.00,,---,0.70,VWS V13.01,2013-08-06 12:19:00,
2013-08-06 08:20:00,66.5,65.9,29.99,SSW,198,0.0,5.0,98,0.00,,---,0.70,VWS V13.01,2013-08-06 12:20:00,
2013-08-06 08:21:00,66.5,65.9,29.99,SSW,198,0.0,5.0,98,0.00,,---,0.70,VWS V13.01,2013-08-06 12:21:00,
2013-08-06 08:23:00,66.5,65.9,29.99,SSW,198,0.0,5.0,98,0.00,,---,0.70,VWS V13.01,2013-08-06 12:23:00,
2013-08-06 08:24:00,66.6,66.0,29.98,SSW,198,0.0,5.0,98,0.00,,---,0.70,VWS V13.01,2013-08-06 12:24:00,
2013-08-06 08:25:00,66.5,65.9,29.99,SSW,198,0.0,5.0,98,0.00,,---,0.70,VWS V13.01,2013-08-06 12:25:00,
2013-08-06 08:26:00,66.5,65.9,29.99,SSW,198,0.0,5.0,98,0.00,,---,0.70,VWS V13.01,2013-08-06 12:26:00,
2013-08-06 08:28:00,66.6,66.0,29.99,SSW,198,0.0,5.0,98,0.00,,---,0.70,VWS V13.01,2013-08-06 12:28:00,
2013-08-06 08:29:00,66.6,66.0,29.99,SSW,198,0.0,5.0,98,0.00,,---,0.70,VWS V13.01,2013-08-06 12:29:00,
2013-08-06 08:30:00,66.6,66.0,29.99,SSW,198,0.0,5.0,98,0.00,,---,0.70,VWS V13.01,2013-08-06 12:30:00,
2013-08-06 08:31:00,66.6,66.0,29.99,SSW,198,0.0,5.0,98,0.00,,---,0.70,VWS V13.01,2013-08-06 12:31:00,
2013-08-06 08:33:00,66.6,66.0,29.99,SSW,198,0.0,0.0,98,0.00,,---,0.70,VWS V13.01,2013-08-06 12:33:00,
2013-08-06 08:34:00,66.6,66.0,29.99,SSW,198,0.0,0.0,98,0.00,,---,0.70,VWS V13.01,2013-08-06 12:34:00,
2013-08-06 08:35:00,66.6,66.0,29.99,SSW,198,0.0,0.0,98,0.00,,---,0.70,VWS V13.01,2013-08-06 12:35:00,
2013-08-06 08:36:00,66.6,66.0,29.99,SSW,198,0.0,1.0,98,0.00,,---,0.70,VWS V13.01,2013-08-06 12:36:00,
2013-08-06 08:38:00,66.7,66.1,29.98,SSW,198,0.0,1.0,98,0.00,,---,0.70,VWS V13.01,2013-08-06 12:38:00,
2013-08-06 08:39:00,66.7,66.1,29.98,SSW,198,0.0,1.0,98,0.00,,---,0.70,VWS V13.01,2013-08-06 12:39:00,
2013-08-06 08:40:00,66.7,66.1,29.98,SSW,198,0.0,1.0,98,0.00,,---,0.70,VWS V13.01,2013-08-06 12:40:00,
2013-08-06 08:41:00,66.8,66.2,29.98,SSW,198,0.0,1.0,98,0.00,,---,0.70,VWS V13.01,2013-08-06 12:41:00,
2013-08-06 08:44:00,66.8,66.2,29.99,SSW,198,0.0,1.0,98,0.00,,---,0.70,VWS V13.01,2013-08-06 12:44:00,
2013-08-06 08:45:00,66.9,66.3,29.99,SSW,198,0.0,1.0,98,0.00,,---,0.70,VWS V13.01,2013-08-06 12:45:00,
2013-08-06 08:46:00,67.0,66.4,29.99,SSW,198,0.0,1.0,98,0.00,,---,0.70,VWS V13.01,2013-08-06 12:46:00,
2013-08-06 08:49:00,67.2,66.6,29.98,SSW,198,0.0,1.0,98,0.00,,---,0.70,VWS V13.01,2013-08-06 12:49:00,
2013-08-06 08:50:00,67.2,66.6,29.98,SSW,198,0.0,1.0,98,0.00,,---,0.70,VWS V13.01,2013-08-06 12:50:00,
2013-08-06 08:51:00,67.3,66.7,29.98,SSW,198,0.0,1.0,98,0.00,,---,0.70,VWS V13.01,2013-08-06 12:51:00,
2013-08-06 08:52:00,67.3,66.7,29.98,SSW,198,0.0,1.0,98,0.00,,---,0.70,VWS V13.01,2013-08-06 12:52:00,
2013-08-06 08:54:00,67.3,66.7,29.98,SSW,198,0.0,1.0,98,0.00,,---,0.70,VWS V13.01,2013-08-06 12:54:00,
2013-08-06 08:55:00,67.3,66.7,29.98,SSW,198,0.0,1.0,98,0.00,,---,0.70,VWS V13.01,2013-08-06 12:55:00,
2013-08-06 08:56:00,67.4,66.8,29.98,SSW,198,1.0,2.0,98,0.00,,---,0.70,VWS V13.01,2013-08-06 12:56:00,
2013-08-06 08:57:00,67.5,66.9,29.99,SSW,198,0.0,2.0,98,0.00,,---,0.70,VWS V13.01,2013-08-06 12:57:00,
2013-08-06 08:59:00,67.6,67.0,29.98,SSW,198,0.0,2.0,98,0.00,,---,0.70,VWS V13.01,2013-08-06 12:59:00,
2013-08-06 09:00:00,67.6,67.0,29.98,SSW,198,0.0,2.0,98,0.00,,---,0.70,VWS V13.01,2013-08-06 13:00:00,
2013-08-06 09:01:00,67.7,67.1,29.98,SSW,198,0.0,2.0,98,0.00,,---,0.70,VWS V13.01,2013-08-06 13:01:00,
2013-08-06 09:02:00,67.7,67.1,29.98,SSW,198,0.0,0.0,98,0.00,,---,0.70,VWS V13.01,2013-08-06 13:02:00,
2013-08-06 09:04:00,67.9,67.3,29.98,South,188,2.0,5.0,98,0.00,,---,0.70,VWS V13.01,2013-08-06 13:04:00,
2013-08-06 09:05:00,67.9,67.3,29.98,South,189,0.0,5.0,98,0.00,,---,0.70,VWS V13.01,2013-08-06 13:05:00,
2013-08-06 09:06:00,68.0,67.4,29.98,South,189,0.0,5.0,98,0.00,,---,0.70,VWS V13.01,2013-08-06 13:06:00,
2013-08-06 09:07:00,68.1,67.5,29.98,South,189,0.0,5.0,98,0.00,,---,0.70,VWS V13.01,2013-08-06 13:07:00,
2013-08-06 09:10:00,68.1,67.5,29.98,South,188,0.0,5.0,98,0.00,,---,0.70,VWS V13.01,2013-08-06 13:10:00,
2013-08-06 09:11:00,68.2,67.6,29.98,South,189,0.0,5.0,98,0.00,,---,0.70,VWS V13.01,2013-08-06 13:11:00,
2013-08-06 09:13:00,68.3,67.7,29.98,South,189,0.0,5.0,98,0.00,,---,0.70,VWS V13.01,2013-08-06 13:13:00,
2013-08-06 09:15:00,68.5,67.9,29.99,South,189,0.0,5.0,98,0.00,,---,0.70,VWS V13.01,2013-08-06 13:15:00,
2013-08-06 09:16:00,68.5,67.9,29.99,South,189,0.0,5.0,98,0.00,,---,0.70,VWS V13.01,2013-08-06 13:16:00,
2013-08-06 09:18:00,68.5,67.9,29.99,South,189,0.0,5.0,98,0.00,,---,0.70,VWS V13.01,2013-08-06 13:18:00,
2013-08-06 09:20:00,68.6,68.0,29.99,South,188,0.0,5.0,98,0.00,,---,0.70,VWS V13.01,2013-08-06 13:20:00,
2013-08-06 09:21:00,68.7,68.1,29.99,South,188,0.0,5.0,98,0.00,,---,0.70,VWS V13.01,2013-08-06 13:21:00,
2013-08-06 09:24:00,68.9,68.0,29.99,South,188,0.0,5.0,97,0.00,,---,0.70,VWS V13.01,2013-08-06 13:24:00,
2013-08-06 09:25:00,68.9,68.0,29.99,South,189,0.0,5.0,97,0.00,,---,0.70,VWS V13.01,2013-08-06 13:25:00,
2013-08-06 09:26:00,68.9,68.0,29.99,South,189,3.0,5.0,97,0.00,,---,0.70,VWS V13.01,2013-08-06 13:26:00,
2013-08-06 09:27:00,68.9,68.0,29.99,South,189,0.0,5.0,97,0.00,,---,0.70,VWS V13.01,2013-08-06 13:27:00,
2013-08-06 09:29:00,68.9,68.0,29.98,South,188,0.0,5.0,97,0.00,,---,0.70,VWS V13.01,2013-08-06 13:29:00,
2013-08-06 09:30:00,68.9,68.0,29.99,South,189,0.0,5.0,97,0.00,,---,0.70,VWS V13.01,2013-08-06 13:30:00,
2013-08-06 09:31:00,68.8,67.6,29.98,South,189,0.0,5.0,96,0.00,,---,0.70,VWS V13.01,2013-08-06 13:31:00,
2013-08-06 09:32:00,68.9,67.7,29.99,South,190,0.0,4.0,96,0.00,,---,0.70,VWS V13.01,2013-08-06 13:32:00,
2013-08-06 09:34:00,69.0,67.8,29.99,South,190,0.0,5.0,96,0.00,,---,0.70,VWS V13.01,2013-08-06 13:34:00,
2013-08-06 09:35:00,69.0,68.1,29.99,South,190,0.0,5.0,97,0.00,,---,0.70,VWS V13.01,2013-08-06 13:35:00,
2013-08-06 09:36:00,69.0,68.1,29.98,South,190,0.0,5.0,97,0.00,,---,0.70,VWS V13.01,2013-08-06 13:36:00,
2013-08-06 09:37:00,69.1,67.9,29.99,South,190,0.0,5.0,96,0.00,,---,0.70,VWS V13.01,2013-08-06 13:37:00,
2013-08-06 09:38:00,69.1,67.9,29.99,South,190,0.0,5.0,96,0.00,,---,0.70,VWS V13.01,2013-08-06 13:38:00,
2013-08-06 09:39:00,69.1,67.9,29.99,South,190,0.0,5.0,96,0.00,,---,0.70,VWS V13.01,2013-08-06 13:39:00,
2013-08-06 09:40:00,69.2,68.0,29.98,South,190,0.0,5.0,96,0.00,,---,0.70,VWS V13.01,2013-08-06 13:40:00,
2013-08-06 09:41:00,69.3,68.1,29.99,South,190,0.0,5.0,96,0.00,,---,0.70,VWS V13.01,2013-08-06 13:41:00,
2013-08-06 09:42:00,69.4,68.2,29.98,South,190,0.0,5.0,96,0.00,,---,0.70,VWS V13.01,2013-08-06 13:42:00,
2013-08-06 09:43:00,69.4,68.2,29.98,South,190,0.0,5.0,96,0.00,,---,0.70,VWS V13.01,2013-08-06 13:43:00,
2013-08-06 09:44:00,69.4,68.2,29.98,South,190,0.0,5.0,96,0.00,,---,0.70,VWS V13.01,2013-08-06 13:44:00,
2013-08-06 09:45:00,69.4,68.2,29.98,South,190,2.0,5.0,96,0.00,,---,0.70,VWS V13.01,2013-08-06 13:45:00,
2013-08-06 09:46:00,69.4,68.2,29.98,South,190,1.0,5.0,96,0.00,,---,0.70,VWS V13.01,2013-08-06 13:46:00,
2013-08-06 09:47:00,69.4,68.2,29.99,South,190,0.0,5.0,96,0.00,,---,0.70,VWS V13.01,2013-08-06 13:47:00,
2013-08-06 09:48:00,69.5,68.3,29.99,South,190,0.0,5.0,96,0.00,,---,0.70,VWS V13.01,2013-08-06 13:48:00,
2013-08-06 09:49:00,69.5,68.3,29.99,South,190,0.0,5.0,96,0.00,,---,0.70,VWS V13.01,2013-08-06 13:49:00,
2013-08-06 09:50:00,69.7,68.5,29.99,South,190,0.0,5.0,96,0.00,,---,0.70,VWS V13.01,2013-08-06 13:50:00,
2013-08-06 09:51:00,69.7,68.5,29.99,South,190,0.0,5.0,96,0.00,,---,0.70,VWS V13.01,2013-08-06 13:51:00,
2013-08-06 09:52:00,69.6,68.4,29.99,SSW,193,3.0,5.0,96,0.00,,---,0.70,VWS V13.01,2013-08-06 13:52:00,
2013-08-06 09:53:00,69.5,68.0,29.99,SSW,194,0.0,5.0,95,0.00,,---,0.70,VWS V13.01,2013-08-06 13:53:00,
2013-08-06 09:54:00,69.7,68.5,29.99,SSW,194,0.0,5.0,96,0.00,,---,0.70,VWS V13.01,2013-08-06 13:54:00,
2013-08-06 09:55:00,69.8,68.3,29.99,SSW,194,0.0,5.0,95,0.00,,---,0.70,VWS V13.01,2013-08-06 13:55:00,
2013-08-06 09:56:00,69.8,68.3,29.99,SSW,194,0.0,5.0,95,0.00,,---,0.70,VWS V13.01,2013-08-06 13:56:00,
2013-08-06 09:57:00,69.9,68.4,29.99,SSW,194,0.0,5.0,95,0.00,,---,0.70,VWS V13.01,2013-08-06 13:57:00,
2013-08-06 09:59:00,70.1,68.6,29.99,SSW,194,0.0,5.0,95,0.00,,---,0.70,VWS V13.01,2013-08-06 13:59:00,
2013-08-06 10:00:00,70.6,69.1,29.99,SSW,192,3.0,5.0,95,0.00,,---,0.70,VWS V13.01,2013-08-06 14:00:00,
2013-08-06 10:01:00,70.9,69.4,29.99,SSW,192,0.0,5.0,95,0.00,,---,0.70,VWS V13.01,2013-08-06 14:01:00,
2013-08-06 10:02:00,71.1,69.6,29.99,SSW,194,0.0,3.0,95,0.00,,---,0.70,VWS V13.01,2013-08-06 14:02:00,
2013-08-06 10:04:00,71.1,69.0,29.99,SSW,194,0.0,3.0,93,0.00,,---,0.70,VWS V13.01,2013-08-06 14:04:00,
2013-08-06 10:06:00,71.3,69.5,29.99,SSW,193,3.0,3.0,94,0.00,,---,0.70,VWS V13.01,2013-08-06 14:06:00,
2013-08-06 10:07:00,71.3,69.2,29.99,SSW,202,7.0,8.0,93,0.00,,---,0.70,VWS V13.01,2013-08-06 14:07:00,
2013-08-06 10:08:00,71.4,69.3,29.99,SW,221,0.0,8.0,93,0.00,,---,0.70,VWS V13.01,2013-08-06 14:08:00,
2013-08-06 10:09:00,71.5,69.4,29.99,SW,219,1.0,8.0,93,0.00,,---,0.70,VWS V13.01,2013-08-06 14:09:00,
2013-08-06 10:11:00,71.5,69.1,29.99,SSE,167,0.0,8.0,92,0.00,,---,0.70,VWS V13.01,2013-08-06 14:11:00,
2013-08-06 10:12:00,71.6,69.2,29.99,SW,221,0.0,8.0,92,0.00,,---,0.70,VWS V13.01,2013-08-06 14:12:00,
2013-08-06 10:13:00,71.5,69.1,29.99,WSW,249,3.0,8.0,92,0.00,,---,0.70,VWS V13.01,2013-08-06 14:13:00,
2013-08-06 10:14:00,71.6,69.2,29.99,WSW,247,0.0,8.0,92,0.00,,---,0.70,VWS V13.01,2013-08-06 14:14:00,
2013-08-06 10:15:00,71.8,69.3,29.99,WSW,247,0.0,8.0,92,0.00,,---,0.70,VWS V13.01,2013-08-06 14:15:00,
2013-08-06 10:16:00,72.0,69.2,29.99,WSW,238,3.0,8.0,91,0.00,,---,0.70,VWS V13.01,2013-08-06 14:16:00,
2013-08-06 10:17:00,72.1,69.3,29.99,SW,223,1.0,8.0,91,0.00,,---,0.70,VWS V13.01,2013-08-06 14:17:00,
2013-08-06 10:18:00,72.3,69.5,29.99,SSW,204,2.0,8.0,91,0.00,,---,0.70,VWS V13.01,2013-08-06 14:18:00,
2013-08-06 10:19:00,72.3,69.2,29.99,SSW,198,0.0,8.0,90,0.00,,---,0.70,VWS V13.01,2013-08-06 14:19:00,
2013-08-06 10:20:00,72.4,69.6,29.99,SSW,198,1.0,8.0,91,0.00,,---,0.70,VWS V13.01,2013-08-06 14:20:00,
2013-08-06 10:21:00,72.4,69.6,29.99,South,182,9.0,9.0,91,0.00,,---,0.70,VWS V13.01,2013-08-06 14:21:00,
2013-08-06 10:22:00,72.4,69.6,29.99,SW,216,4.0,12.0,91,0.00,,---,0.70,VWS V13.01,2013-08-06 14:22:00,
2013-08-06 10:23:00,72.4,69.3,29.99,SSW,211,0.0,12.0,90,0.00,,---,0.70,VWS V13.01,2013-08-06 14:23:00,
2013-08-06 10:24:00,72.3,69.2,29.99,SSW,211,0.0,12.0,90,0.00,,---,0.70,VWS V13.01,2013-08-06 14:24:00,
2013-08-06 10:25:00,72.3,69.2,29.99,SSW,213,2.0,12.0,90,0.00,,---,0.70,VWS V13.01,2013-08-06 14:25:00,
2013-08-06 10:27:00,72.5,69.7,29.99,SW,223,2.0,12.0,91,0.00,,---,0.70,VWS V13.01,2013-08-06 14:27:00,
2013-08-06 10:28:00,72.7,69.6,29.99,SW,225,3.0,12.0,90,0.00,,---,0.70,VWS V13.01,2013-08-06 14:28:00,
2013-08-06 10:29:00,72.8,70.0,29.99,SSW,206,1.0,12.0,91,0.00,,---,0.70,VWS V13.01,2013-08-06 14:29:00,
2013-08-06 10:30:00,72.9,69.8,29.99,WSW,238,0.0,12.0,90,0.00,,---,0.70,VWS V13.01,2013-08-06 14:30:00,
2013-08-06 10:32:00,72.9,69.5,29.99,South,184,3.0,4.0,89,0.00,,---,0.70,VWS V13.01,2013-08-06 14:32:00,
2013-08-06 10:33:00,73.1,69.7,29.99,SW,222,5.0,6.0,89,0.00,,---,0.70,VWS V13.01,2013-08-06 14:33:00,
2013-08-06 10:34:00,73.3,70.2,29.99,ESE,114,4.0,10.0,90,0.00,,---,0.70,VWS V13.01,2013-08-06 14:34:00,
2013-08-06 10:35:00,73.5,70.4,29.99,SW,217,3.0,10.0,90,0.00,,---,0.70,VWS V13.01,2013-08-06 14:35:00,
2013-08-06 10:37:00,73.8,70.0,29.99,SW,227,5.0,10.0,88,0.00,,---,0.70,VWS V13.01,2013-08-06 14:37:00,
2013-08-06 10:39:00,74.1,70.7,29.98,SW,222,0.0,10.0,89,0.00,,---,0.70,VWS V13.01,2013-08-06 14:39:00,
2013-08-06 10:40:00,74.2,70.4,29.98,South,174,4.0,10.0,88,0.00,,---,0.70,VWS V13.01,2013-08-06 14:40:00,
2013-08-06 10:42:00,74.2,69.8,29.99,WSW,241,2.0,10.0,86,0.00,,---,0.70,VWS V13.01,2013-08-06 14:42:00,
2013-08-06 10:44:00,74.1,69.7,29.99,WSW,250,4.0,10.0,86,0.00,,---,0.70,VWS V13.01,2013-08-06 14:44:00,
2013-08-06 10:45:00,74.2,69.8,29.99,SSW,197,0.0,10.0,86,0.00,,---,0.70,VWS V13.01,2013-08-06 14:45:00,
2013-08-06 10:47:00,74.2,70.1,29.99,SSW,201,0.0,11.0,87,0.00,,---,0.70,VWS V13.01,2013-08-06 14:47:00,
2013-08-06 10:48:00,74.3,70.2,29.99,SSW,208,1.0,11.0,87,0.00,,---,0.70,VWS V13.01,2013-08-06 14:48:00,
2013-08-06 10:49:00,74.3,69.8,29.99,South,189,0.0,11.0,86,0.00,,---,0.70,VWS V13.01,2013-08-06 14:49:00,
2013-08-06 10:50:00,74.4,69.6,29.99,SW,214,3.0,11.0,85,0.00,,---,0.70,VWS V13.01,2013-08-06 14:50:00,
2013-08-06 10:51:00,74.3,69.5,29.99,SW,214,0.0,11.0,85,0.00,,---,0.70,VWS V13.01,2013-08-06 14:51:00,
2013-08-06 10:52:00,74.4,69.9,29.99,SW,221,3.0,11.0,86,0.00,,---,0.70,VWS V13.01,2013-08-06 14:52:00,
2013-08-06 10:53:00,74.4,69.9,29.99,SW,223,3.0,11.0,86,0.00,,---,0.70,VWS V13.01,2013-08-06 14:53:00,
2013-08-06 10:54:00,74.4,70.3,29.99,SW,236,0.0,11.0,87,0.00,,---,0.70,VWS V13.01,2013-08-06 14:54:00,
2013-08-06 10:55:00,74.3,69.8,29.99,WSW,242,0.0,11.0,86,0.00,,---,0.70,VWS V13.01,2013-08-06 14:55:00,
2013-08-06 10:56:00,74.2,69.8,29.99,SW,225,0.0,11.0,86,0.00,,---,0.70,VWS V13.01,2013-08-06 14:56:00,
2013-08-06 10:57:00,74.2,69.8,29.99,WSW,248,0.0,16.0,86,0.00,,---,0.70,VWS V13.01,2013-08-06 14:57:00,
2013-08-06 10:58:00,74.2,70.1,29.99,SW,221,6.0,16.0,87,0.00,,---,0.70,VWS V13.01,2013-08-06 14:58:00,
2013-08-06 10:59:00,74.1,70.0,29.99,WSW,245,3.0,16.0,87,0.00,,---,0.70,VWS V13.01,2013-08-06 14:59:00,
2013-08-06 11:00:00,74.0,69.9,29.99,SW,234,0.0,16.0,87,0.00,,---,0.70,VWS V13.01,2013-08-06 15:00:00,
2013-08-06 11:01:00,74.0,69.9,29.99,SW,225,4.0,16.0,87,0.00,,---,0.70,VWS V13.01,2013-08-06 15:01:00,
2013-08-06 11:03:00,74.0,69.9,29.99,SW,227,0.0,1.0,87,0.00,,---,0.70,VWS V13.01,2013-08-06 15:03:00,
2013-08-06 11:04:00,74.0,69.9,29.99,SW,230,0.0,3.0,87,0.00,,---,0.70,VWS V13.01,2013-08-06 15:04:00,
2013-08-06 11:05:00,74.0,69.6,29.99,WSW,237,0.0,4.0,86,0.00,,---,0.70,VWS V13.01,2013-08-06 15:05:00,
2013-08-06 11:06:00,74.0,69.9,29.99,WSW,238,5.0,7.0,87,0.00,,---,0.70,VWS V13.01,2013-08-06 15:06:00,
2013-08-06 11:08:00,73.9,69.4,29.99,NW,319,0.0,12.0,86,0.00,,---,0.70,VWS V13.01,2013-08-06 15:08:00,
2013-08-06 11:09:00,73.9,69.4,29.99,WNW,292,0.0,12.0,86,0.00,,---,0.70,VWS V13.01,2013-08-06 15:09:00,
2013-08-06 11:10:00,73.9,69.4,29.99,South,188,0.0,12.0,86,0.00,,---,0.70,VWS V13.01,2013-08-06 15:10:00,
2013-08-06 11:11:00,74.0,69.9,29.99,South,181,0.0,12.0,87,0.00,,---,0.70,VWS V13.01,2013-08-06 15:11:00,
2013-08-06 11:13:00,74.0,69.6,29.99,SSW,192,0.0,12.0,86,0.00,,---,0.70,VWS V13.01,2013-08-06 15:13:00,
2013-08-06 11:14:00,74.1,69.7,29.99,West,275,0.0,12.0,86,0.00,,---,0.70,VWS V13.01,2013-08-06 15:14:00,
2013-08-06 11:15:00,74.2,69.8,29.99,SW,219,0.0,12.0,86,0.00,,---,0.70,VWS V13.01,2013-08-06 15:15:00,
2013-08-06 11:16:00,74.2,69.8,29.99,SSW,209,0.0,12.0,86,0.00,,---,0.70,VWS V13.01,2013-08-06 15:16:00,
2013-08-06 11:18:00,74.3,69.8,29.99,West,272,0.0,12.0,86,0.00,,---,0.70,VWS V13.01,2013-08-06 15:18:00,
2013-08-06 11:19:00,74.1,69.7,29.99,SSW,208,3.0,12.0,86,0.00,,---,0.70,VWS V13.01,2013-08-06 15:19:00,
2013-08-06 11:20:00,74.2,70.1,29.99,SSW,210,1.0,12.0,87,0.00,,---,0.70,VWS V13.01,2013-08-06 15:20:00,
2013-08-06 11:22:00,74.2,70.1,29.99,SSW,211,0.0,12.0,87,0.00,,---,0.70,VWS V13.01,2013-08-06 15:22:00,
2013-08-06 11:23:00,74.3,70.2,29.99,SSW,197,2.0,12.0,87,0.00,,---,0.70,VWS V13.01,2013-08-06 15:23:00,
2013-08-06 11:24:00,74.3,69.8,29.99,SW,219,0.0,12.0,86,0.00,,---,0.70,VWS V13.01,2013-08-06 15:24:00,
2013-08-06 11:25:00,74.4,70.3,29.99,SW,218,0.0,12.0,87,0.00,,---,0.70,VWS V13.01,2013-08-06 15:25:00,
2013-08-06 11:27:00,74.4,70.3,29.99,SW,217,1.0,12.0,87,0.00,,---,0.70,VWS V13.01,2013-08-06 15:27:00,
2013-08-06 11:28:00,74.4,69.9,29.99,SW,221,0.0,12.0,86,0.00,,---,0.70,VWS V13.01,2013-08-06 15:28:00,
2013-08-06 11:29:00,74.4,70.3,29.99,SW,221,0.0,12.0,87,0.00,,---,0.70,VWS V13.01,2013-08-06 15:29:00,
2013-08-06 11:30:00,74.4,69.9,30.00,SW,223,0.0,12.0,86,0.00,,---,0.70,VWS V13.01,2013-08-06 15:30:00,
2013-08-06 11:32:00,74.5,70.4,30.00,SW,222,4.0,6.0,87,0.00,,---,0.70,VWS V13.01,2013-08-06 15:32:00,
2013-08-06 11:33:00,74.7,70.2,30.00,SSW,200,5.0,6.0,86,0.00,,---,0.70,VWS V13.01,2013-08-06 15:33:00,
2013-08-06 11:34:00,74.9,70.1,30.00,SW,235,5.0,7.0,85,0.00,,---,0.70,VWS V13.01,2013-08-06 15:34:00,
2013-08-06 11:35:00,74.9,70.1,30.00,SW,236,0.0,7.0,85,0.00,,---,0.70,VWS V13.01,2013-08-06 15:35:00,
2013-08-06 11:37:00,75.0,70.9,30.00,SW,223,1.0,7.0,87,0.00,,---,0.70,VWS V13.01,2013-08-06 15:37:00,
2013-08-06 11:38:00,75.2,70.4,30.00,SW,223,1.0,7.0,85,0.00,,---,0.70,VWS V13.01,2013-08-06 15:38:00,
2013-08-06 11:39:00,75.2,70.4,30.00,SW,222,2.0,7.0,85,0.00,,---,0.70,VWS V13.01,2013-08-06 15:39:00,
2013-08-06 11:40:00,75.3,70.5,30.00,SW,223,3.0,7.0,85,0.00,,---,0.70,VWS V13.01,2013-08-06 15:40:00,
2013-08-06 11:41:00,75.2,70.4,30.00,South,169,0.0,10.0,85,0.00,,---,0.70,VWS V13.01,2013-08-06 15:41:00,
2013-08-06 11:42:00,75.3,70.1,30.00,SW,218,0.0,10.0,84,0.00,,---,0.70,VWS V13.01,2013-08-06 15:42:00,
2013-08-06 11:43:00,75.4,70.6,30.00,SSW,213,3.0,10.0,85,0.00,,---,0.70,VWS V13.01,2013-08-06 15:43:00,
2013-08-06 11:44:00,75.4,70.6,30.00,SW,214,0.0,10.0,85,0.00,,---,0.70,VWS V13.01,2013-08-06 15:44:00,
2013-08-06 11:45:00,75.5,70.7,30.00,SSW,213,0.0,10.0,85,0.00,,---,0.70,VWS V13.01,2013-08-06 15:45:00,
2013-08-06 11:46:00,75.5,71.0,30.00,SW,236,0.0,10.0,86,0.00,,---,0.70,VWS V13.01,2013-08-06 15:46:00,
2013-08-06 11:47:00,75.6,70.8,30.00,WSW,246,0.0,10.0,85,0.00,,---,0.70,VWS V13.01,2013-08-06 15:47:00,
2013-08-06 11:49:00,75.6,70.8,30.00,SW,214,0.0,10.0,85,0.00,,---,0.70,VWS V13.01,2013-08-06 15:49:00,
2013-08-06 11:50:00,75.7,71.2,30.00,SW,234,1.0,10.0,86,0.00,,---,0.70,VWS V13.01,2013-08-06 15:50:00,
2013-08-06 11:51:00,75.7,70.2,29.99,SSW,206,0.0,10.0,83,0.00,,---,0.70,VWS V13.01,2013-08-06 15:51:00,
2013-08-06 11:53:00,75.8,70.6,29.99,SW,217,0.0,10.0,84,0.00,,---,0.70,VWS V13.01,2013-08-06 15:53:00,
2013-08-06 11:54:00,75.9,70.4,29.99,SW,227,0.0,10.0,83,0.00,,---,0.70,VWS V13.01,2013-08-06 15:54:00,
2013-08-06 11:55:00,76.0,70.8,29.99,SSW,211,4.0,10.0,84,0.00,,---,0.70,VWS V13.01,2013-08-06 15:55:00,
2013-08-06 11:57:00,76.0,70.5,29.99,SW,218,0.0,10.0,83,0.00,,---,0.70,VWS V13.01,2013-08-06 15:57:00,
2013-08-06 11:59:00,76.0,70.5,29.99,SW,225,1.0,10.0,83,0.00,,---,0.70,VWS V13.01,2013-08-06 15:59:00,
2013-08-06 12:00:00,76.1,70.6,29.99,SW,232,1.0,10.0,83,0.00,,---,0.70,VWS V13.01,2013-08-06 16:00:00,
2013-08-06 12:02:00,76.1,70.2,29.99,SW,230,3.0,6.0,82,0.00,,---,0.70,VWS V13.01,2013-08-06 16:02:00,
2013-08-06 12:03:00,76.1,70.2,29.99,SW,222,4.0,6.0,82,0.00,,---,0.70,VWS V13.01,2013-08-06 16:03:00,
2013-08-06 12:04:00,76.1,70.2,29.99,SW,215,0.0,6.0,82,0.00,,---,0.70,VWS V13.01,2013-08-06 16:04:00,
2013-08-06 12:05:00,76.1,70.2,29.99,SW,215,0.0,6.0,82,0.00,,---,0.70,VWS V13.01,2013-08-06 16:05:00,
2013-08-06 12:07:00,76.1,70.6,29.99,SSW,212,0.0,6.0,83,0.00,,---,0.70,VWS V13.01,2013-08-06 16:07:00,
2013-08-06 12:08:00,76.1,70.9,29.99,SSW,208,0.0,6.0,84,0.00,,---,0.70,VWS V13.01,2013-08-06 16:08:00,
2013-08-06 12:09:00,76.0,70.5,29.99,SW,219,0.0,6.0,83,0.00,,---,0.70,VWS V13.01,2013-08-06 16:09:00,
2013-08-06 12:10:00,76.1,70.6,29.99,SW,219,0.0,6.0,83,0.00,,---,0.70,VWS V13.01,2013-08-06 16:10:00,
2013-08-06 12:12:00,76.1,70.6,29.99,WSW,244,0.0,6.0,83,0.00,,---,0.70,VWS V13.01,2013-08-06 16:12:00,
2013-08-06 12:13:00,76.2,71.0,29.99,South,191,7.0,7.0,84,0.00,,---,0.70,VWS V13.01,2013-08-06 16:13:00,
2013-08-06 12:14:00,76.2,70.7,29.99,SW,225,0.0,7.0,83,0.00,,---,0.70,VWS V13.01,2013-08-06 16:14:00,
2013-08-06 12:15:00,76.2,71.0,29.99,SW,226,6.0,7.0,84,0.00,,---,0.70,VWS V13.01,2013-08-06 16:15:00,
2013-08-06 12:17:00,76.4,71.2,29.99,SW,236,2.0,7.0,84,0.00,,---,0.70,VWS V13.01,2013-08-06 16:17:00,
2013-08-06 12:18:00,76.4,70.9,29.99,SW,232,0.0,7.0,83,0.00,,---,0.70,VWS V13.01,2013-08-06 16:18:00,
2013-08-06 12:19:00,76.4,70.9,29.99,South,171,0.0,12.0,83,0.00,,---,0.70,VWS V13.01,2013-08-06 16:19:00,
2013-08-06 12:20:00,76.4,71.2,29.99,South,175,1.0,12.0,84,0.00,,---,0.70,VWS V13.01,2013-08-06 16:20:00,
2013-08-06 12:21:00,76.4,71.2,29.99,SW,229,0.0,12.0,84,0.00,,---,0.70,VWS V13.01,2013-08-06 16:21:00,
2013-08-06 12:22:00,76.4,71.2,29.99,SSE,167,0.0,12.0,84,0.00,,---,0.70,VWS V13.01,2013-08-06 16:22:00,
2013-08-06 12:23:00,76.2,70.7,29.99,SW,230,0.0,12.0,83,0.00,,---,0.70,VWS V13.01,2013-08-06 16:23:00,
2013-08-06 12:25:00,76.0,70.5,29.99,SW,226,0.0,12.0,83,0.00,,---,0.70,VWS V13.01,2013-08-06 16:25:00,
2013-08-06 12:26:00,75.8,70.6,29.99,SSW,209,0.0,12.0,84,0.00,,---,0.70,VWS V13.01,2013-08-06 16:26:00,
2013-08-06 12:27:00,75.5,70.3,29.99,SW,217,7.0,12.0,84,0.00,,---,0.70,VWS V13.01,2013-08-06 16:27:00,
2013-08-06 12:28:00,75.4,70.2,29.99,SSE,159,0.0,12.0,84,0.00,,---,0.70,VWS V13.01,2013-08-06 16:28:00,
2013-08-06 12:30:00,75.3,69.4,29.99,SW,230,0.0,12.0,82,0.00,,---,0.70,VWS V13.01,2013-08-06 16:30:00,
2013-08-06 12:31:00,75.2,69.7,29.99,WSW,244,0.0,12.0,83,0.00,,---,0.70,VWS V13.01,2013-08-06 16:31:00,
2013-08-06 12:32:00,75.2,70.0,30.00,WSW,242,0.0,2.0,84,0.00,,---,0.70,VWS V13.01,2013-08-06 16:32:00,
2013-08-06 12:33:00,75.2,70.0,30.00,SW,228,2.0,3.0,84,0.00,,---,0.70,VWS V13.01,2013-08-06 16:33:00,
2013-08-06 12:35:00,75.3,69.4,30.00,SSW,206,0.0,10.0,82,0.00,,---,0.70,VWS V13.01,2013-08-06 16:35:00,
2013-08-06 12:36:00,75.3,69.8,29.99,SSW,207,7.0,10.0,83,0.00,,---,0.70,VWS V13.01,2013-08-06 16:36:00,
2013-08-06 12:37:00,75.4,69.9,29.99,SW,232,0.0,10.0,83,0.00,,---,0.70,VWS V13.01,2013-08-06 16:37:00,
2013-08-06 12:38:00,75.4,69.9,29.99,WSW,248,0.0,10.0,83,0.00,,---,0.70,VWS V13.01,2013-08-06 16:38:00,
2013-08-06 12:40:00,75.5,70.7,29.99,South,184,0.0,10.0,85,0.00,,---,0.70,VWS V13.01,2013-08-06 16:40:00,
2013-08-06 12:41:00,75.6,70.4,29.99,ESE,113,1.0,10.0,84,0.00,,---,0.70,VWS V13.01,2013-08-06 16:41:00,
2013-08-06 12:42:00,75.6,70.4,29.99,South,186,0.0,10.0,84,0.00,,---,0.70,VWS V13.01,2013-08-06 16:42:00,
2013-08-06 12:43:00,75.7,70.5,29.99,SSW,213,0.0,10.0,84,0.00,,---,0.70,VWS V13.01,2013-08-06 16:43:00,
2013-08-06 12:45:00,75.7,70.5,29.99,SW,229,0.0,12.0,84,0.00,,---,0.70,VWS V13.01,2013-08-06 16:45:00,
2013-08-06 12:46:00,75.7,70.9,29.99,SW,229,0.0,12.0,85,0.00,,---,0.70,VWS V13.01,2013-08-06 16:46:00,
2013-08-06 12:47:00,75.8,71.3,29.99,SW,229,0.0,12.0,86,0.00,,---,0.70,VWS V13.01,2013-08-06 16:47:00,
2013-08-06 12:48:00,76.0,70.8,29.99,SW,221,1.0,12.0,84,0.00,,---,0.70,VWS V13.01,2013-08-06 16:48:00,
2013-08-06 12:50:00,76.2,70.3,29.99,SW,220,11.0,12.0,82,0.00,,---,0.70,VWS V13.01,2013-08-06 16:50:00,
2013-08-06 12:51:00,76.2,69.9,29.99,SSE,157,4.0,13.0,81,0.00,,---,0.70,VWS V13.01,2013-08-06 16:51:00,
2013-08-06 12:52:00,76.4,70.5,29.99,South,173,0.0,13.0,82,0.00,,---,0.70,VWS V13.01,2013-08-06 16:52:00,
2013-08-06 12:54:00,76.3,70.4,29.99,SSW,202,2.0,13.0,82,0.00,,---,0.70,VWS V13.01,2013-08-06 16:54:00,
2013-08-06 12:55:00,76.3,70.4,29.99,SW,229,8.0,13.0,82,0.00,,---,0.70,VWS V13.01,2013-08-06 16:55:00,
2013-08-06 12:56:00,76.4,70.5,29.99,South,187,0.0,13.0,82,0.00,,---,0.70,VWS V13.01,2013-08-06 16:56:00,
2013-08-06 12:57:00,76.6,71.1,29.99,WSW,252,1.0,13.0,83,0.00,,---,0.70,VWS V13.01,2013-08-06 16:57:00,
2013-08-06 12:59:00,77.0,71.8,29.99,SW,232,0.0,13.0,84,0.00,,---,0.70,VWS V13.01,2013-08-06 16:59:00,
2013-08-06 13:00:00,77.2,70.9,29.99,SSW,192,4.0,13.0,81,0.00,,---,0.70,VWS V13.01,2013-08-06 17:00:00,
2013-08-06 13:01:00,77.2,70.9,29.99,South,171,0.0,13.0,81,0.00,,---,0.70,VWS V13.01,2013-08-06 17:01:00,
2013-08-06 13:02:00,77.1,70.8,29.99,SSE,167,0.0,1.0,81,0.00,,---,0.70,VWS V13.01,2013-08-06 17:02:00,
2013-08-06 13:04:00,77.3,72.1,29.99,SSW,199,0.0,7.0,84,0.00,,---,0.70,VWS V13.01,2013-08-06 17:04:00,
2013-08-06 13:05:00,77.5,71.9,29.99,SSW,199,0.0,7.0,83,0.00,,---,0.70,VWS V13.01,2013-08-06 17:05:00,
2013-08-06 13:06:00,77.5,71.9,29.99,SSW,199,1.0,7.0,83,0.00,,---,0.70,VWS V13.01,2013-08-06 17:06:00,
2013-08-06 13:07:00,77.6,71.7,29.99,SSW,201,0.0,7.0,82,0.00,,---,0.70,VWS V13.01,2013-08-06 17:07:00,
2013-08-06 13:09:00,77.8,71.9,29.99,NNW,330,0.0,7.0,82,0.00,,---,0.70,VWS V13.01,2013-08-06 17:09:00,
2013-08-06 13:10:00,77.8,71.1,29.99,SSW,207,4.0,7.0,80,0.00,,---,0.70,VWS V13.01,2013-08-06 17:10:00,
2013-08-06 13:11:00,77.8,71.1,29.99,SSW,205,1.0,7.0,80,0.00,,---,0.70,VWS V13.01,2013-08-06 17:11:00,
2013-08-06 13:12:00,77.7,71.0,29.99,SSW,207,0.0,7.0,80,0.00,,---,0.70,VWS V13.01,2013-08-06 17:12:00,
2013-08-06 13:14:00,77.5,70.8,29.99,SW,227,1.0,7.0,80,0.00,,---,0.70,VWS V13.01,2013-08-06 17:14:00,
2013-08-06 13:16:00,77.3,70.7,29.99,SW,230,8.0,8.0,80,0.00,,---,0.70,VWS V13.01,2013-08-06 17:16:00,
2013-08-06 13:17:00,77.1,70.5,29.99,SW,229,2.0,8.0,80,0.00,,---,0.70,VWS V13.01,2013-08-06 17:17:00,
2013-08-06 13:20:00,76.8,70.5,29.99,SSW,201,0.0,8.0,81,0.00,,---,0.70,VWS V13.01,2013-08-06 17:20:00,
2013-08-06 13:21:00,76.6,70.3,29.99,West,263,4.0,8.0,81,0.00,,---,0.70,VWS V13.01,2013-08-06 17:21:00,
2013-08-06 13:22:00,76.5,70.2,29.99,WSW,250,3.0,8.0,81,0.00,,---,0.70,VWS V13.01,2013-08-06 17:22:00,
2013-08-06 13:25:00,76.7,71.2,29.99,SSW,202,0.0,8.0,83,0.00,,---,0.70,VWS V13.01,2013-08-06 17:25:00,
2013-08-06 13:26:00,76.9,71.3,29.99,SSE,147,5.0,8.0,83,0.00,,---,0.70,VWS V13.01,2013-08-06 17:26:00,
2013-08-06 13:27:00,76.9,71.0,29.99,SW,228,0.0,8.0,82,0.00,,---,0.70,VWS V13.01,2013-08-06 17:27:00,
2013-08-06 13:28:00,76.8,70.9,29.99,SW,230,0.0,8.0,82,0.00,,---,0.70,VWS V13.01,2013-08-06 17:28:00,
2013-08-06 13:30:00,76.6,70.7,29.99,South,182,3.0,8.0,82,0.00,,---,0.70,VWS V13.01,2013-08-06 17:30:00,
2013-08-06 13:31:00,76.4,70.5,29.99,South,190,0.0,8.0,82,0.00,,---,0.70,VWS V13.01,2013-08-06 17:31:00,
2013-08-06 13:32:00,76.4,70.5,29.99,South,182,0.0,1.0,82,0.00,,---,0.70,VWS V13.01,2013-08-06 17:32:00,
2013-08-06 13:33:00,76.4,70.9,29.99,SSW,194,0.0,6.0,83,0.00,,---,0.70,VWS V13.01,2013-08-06 17:33:00,
2013-08-06 13:35:00,76.4,70.9,29.99,SW,236,1.0,6.0,83,0.00,,---,0.70,VWS V13.01,2013-08-06 17:35:00,
2013-08-06 13:37:00,76.5,71.3,29.99,WSW,244,3.0,6.0,84,0.00,,---,0.70,VWS V13.01,2013-08-06 17:37:00,
2013-08-06 13:38:00,76.7,71.5,29.99,WSW,252,0.0,6.0,84,0.00,,---,0.70,VWS V13.01,2013-08-06 17:38:00,
2013-08-06 13:40:00,77.1,71.2,29.98,WSW,252,0.0,6.0,82,0.00,,---,0.70,VWS V13.01,2013-08-06 17:40:00,
2013-08-06 13:42:00,77.6,72.0,29.98,WSW,252,0.0,6.0,83,0.00,,---,0.70,VWS V13.01,2013-08-06 17:42:00,
2013-08-06 13:43:00,77.9,72.0,29.98,WSW,252,0.0,6.0,82,0.00,,---,0.70,VWS V13.01,2013-08-06 17:43:00,
2013-08-06 13:45:00,77.8,71.1,29.98,SW,229,1.0,6.0,80,0.00,,---,0.70,VWS V13.01,2013-08-06 17:45:00,
2013-08-06 13:47:00,77.6,70.6,29.98,SSW,211,0.0,11.0,79,0.00,,---,0.70,VWS V13.01,2013-08-06 17:47:00,
2013-08-06 13:48:00,77.7,71.0,29.98,SW,230,2.0,11.0,80,0.00,,---,0.70,VWS V13.01,2013-08-06 17:48:00,
2013-08-06 13:51:00,78.4,72.1,29.98,WSW,246,0.0,11.0,81,0.00,,---,0.70,VWS V13.01,2013-08-06 17:51:00,
2013-08-06 13:52:00,78.5,71.8,29.98,SSE,148,4.0,11.0,80,0.00,,---,0.70,VWS V13.01,2013-08-06 17:52:00,
2013-08-06 13:53:00,78.4,72.1,29.98,SSW,207,0.0,11.0,81,0.00,,---,0.70,VWS V13.01,2013-08-06 17:53:00,
2013-08-06 13:56:00,78.7,72.0,29.98,WSW,237,2.0,11.0,80,0.00,,---,0.70,VWS V13.01,2013-08-06 17:56:00,
2013-08-06 13:57:00,78.7,72.0,29.98,SW,236,1.0,11.0,80,0.00,,---,0.70,VWS V13.01,2013-08-06 17:57:00,
2013-08-06 13:58:00,78.7,72.0,29.98,SW,225,5.0,11.0,80,0.00,,---,0.70,VWS V13.01,2013-08-06 17:58:00,
2013-08-06 14:01:00,78.7,71.6,29.98,SW,225,0.0,11.0,79,0.00,,---,0.70,VWS V13.01,2013-08-06 18:01:00,
2013-08-06 14:02:00,78.7,72.4,29.98,SW,225,0.0,0.0,81,0.00,,---,0.70,VWS V13.01,2013-08-06 18:02:00,
2013-08-06 14:03:00,78.7,71.6,29.98,SW,222,0.0,4.0,79,0.00,,---,0.70,VWS V13.01,2013-08-06 18:03:00,
2013-08-06 14:04:00,78.7,72.0,29.98,South,172,0.0,4.0,80,0.00,,---,0.70,VWS V13.01,2013-08-06 18:04:00,
2013-08-06 14:06:00,78.3,71.6,29.98,South,184,2.0,11.0,80,0.00,,---,0.70,VWS V13.01,2013-08-06 18:06:00,
2013-08-06 14:07:00,78.0,71.7,29.98,SSW,192,0.0,11.0,81,0.00,,---,0.70,VWS V13.01,2013-08-06 18:07:00,
2013-08-06 14:08:00,78.0,72.4,29.98,West,259,0.0,11.0,83,0.00,,---,0.70,VWS V13.01,2013-08-06 18:08:00,
2013-08-06 14:09:00,78.1,71.8,29.98,SW,225,0.0,11.0,81,0.00,,---,0.70,VWS V13.01,2013-08-06 18:09:00,
2013-08-06 14:11:00,78.5,71.8,29.97,SSW,195,2.0,13.0,80,0.00,,---,0.70,VWS V13.01,2013-08-06 18:11:00,
2013-08-06 14:13:00,78.8,72.5,29.97,SSE,164,10.0,13.0,81,0.00,,---,0.70,VWS V13.01,2013-08-06 18:13:00,
2013-08-06 14:14:00,79.1,72.4,29.97,SSW,194,1.0,13.0,80,0.00,,---,0.70,VWS V13.01,2013-08-06 18:14:00,
2013-08-06 14:16:00,79.3,73.0,29.97,SSE,156,0.0,13.0,81,0.00,,---,0.70,VWS V13.01,2013-08-06 18:16:00,
2013-08-06 14:18:00,79.6,73.6,29.97,SW,224,7.0,13.0,82,0.00,,---,0.70,VWS V13.01,2013-08-06 18:18:00,
2013-08-06 14:19:00,79.5,73.2,29.97,SSW,198,0.0,13.0,81,0.00,,---,0.70,VWS V13.01,2013-08-06 18:19:00,
2013-08-06 14:22:00,79.1,71.7,29.97,SSW,203,1.0,13.0,78,0.00,,---,0.70,VWS V13.01,2013-08-06 18:22:00,
2013-08-06 14:23:00,78.9,72.6,29.97,SSE,152,1.0,13.0,81,0.00,,---,0.70,VWS V13.01,2013-08-06 18:23:00,
2013-08-06 14:25:00,78.7,71.6,29.97,SSW,195,3.0,13.0,79,0.00,,---,0.70,VWS V13.01,2013-08-06 18:25:00,
2013-08-06 14:27:00,78.7,71.6,29.97,West,277,5.0,13.0,79,0.00,,---,0.70,VWS V13.01,2013-08-06 18:27:00,
2013-08-06 14:28:00,78.8,71.7,29.97,SSW,213,5.0,13.0,79,0.00,,---,0.70,VWS V13.01,2013-08-06 18:28:00,
2013-08-06 14:30:00,78.9,71.8,29.97,SW,228,0.0,13.0,79,0.00,,---,0.70,VWS V13.01,2013-08-06 18:30:00,
2013-08-06 14:32:00,78.6,71.6,29.97,South,183,2.0,7.0,79,0.00,,---,0.70,VWS V13.01,2013-08-06 18:32:00,
2013-08-06 14:33:00,78.3,71.6,29.97,South,175,0.0,7.0,80,0.00,,---,0.70,VWS V13.01,2013-08-06 18:33:00,
2013-08-06 14:34:00,78.2,71.2,29.97,SSW,202,9.0,11.0,79,0.00,,---,0.70,VWS V13.01,2013-08-06 18:34:00,
2013-08-06 14:35:00,77.7,71.4,29.97,South,190,3.0,15.0,81,0.00,,---,0.70,VWS V13.01,2013-08-06 18:35:00,
2013-08-06 14:37:00,77.3,71.0,29.97,SSW,192,0.0,15.0,81,0.00,,---,0.70,VWS V13.01,2013-08-06 18:37:00,
2013-08-06 14:38:00,77.2,70.9,29.97,SE,127,2.0,15.0,81,0.00,,---,0.70,VWS V13.01,2013-08-06 18:38:00,
2013-08-06 14:39:00,77.2,71.3,29.97,SW,234,0.0,15.0,82,0.00,,---,0.70,VWS V13.01,2013-08-06 18:39:00,
2013-08-06 14:40:00,77.1,71.2,29.97,SSW,199,1.0,15.0,82,0.00,,---,0.70,VWS V13.01,2013-08-06 18:40:00,
2013-08-06 14:42:00,77.3,71.4,29.97,South,187,0.0,15.0,82,0.00,,---,0.70,VWS V13.01,2013-08-06 18:42:00,
2013-08-06 14:43:00,77.5,72.3,29.97,South,187,0.0,15.0,84,0.00,,---,0.70,VWS V13.01,2013-08-06 18:43:00,
2013-08-06 14:44:00,77.6,72.4,29.97,South,187,0.0,15.0,84,0.00,,---,0.70,VWS V13.01,2013-08-06 18:44:00,
2013-08-06 14:45:00,77.7,72.5,29.97,SW,227,0.0,15.0,84,0.00,,---,0.70,VWS V13.01,2013-08-06 18:45:00,
2013-08-06 14:47:00,77.8,71.9,29.98,South,181,2.0,15.0,82,0.00,,---,0.70,VWS V13.01,2013-08-06 18:47:00,
2013-08-06 14:48:00,77.8,71.9,29.98,WSW,245,3.0,15.0,82,0.00,,---,0.70,VWS V13.01,2013-08-06 18:48:00,
2013-08-06 14:49:00,77.8,71.5,29.98,SSE,155,2.0,15.0,81,0.00,,---,0.70,VWS V13.01,2013-08-06 18:49:00,
2013-08-06 14:51:00,77.5,71.6,29.98,SSE,160,5.0,15.0,82,0.00,,---,0.70,VWS V13.01,2013-08-06 18:51:00,
2013-08-06 14:52:00,77.3,71.4,29.98,SW,218,0.0,15.0,82,0.00,,---,0.70,VWS V13.01,2013-08-06 18:52:00,
2013-08-06 14:54:00,77.2,71.3,29.98,SW,217,0.0,15.0,82,0.00,,---,0.70,VWS V13.01,2013-08-06 18:54:00,
2013-08-06 14:56:00,77.1,71.5,29.97,SSE,153,3.0,15.0,83,0.00,,---,0.70,VWS V13.01,2013-08-06 18:56:00,
2013-08-06 14:57:00,77.1,71.5,29.97,SSW,203,2.0,15.0,83,0.00,,---,0.70,VWS V13.01,2013-08-06 18:57:00,
2013-08-06 14:59:00,77.0,71.4,29.97,South,179,0.0,15.0,83,0.00,,---,0.70,VWS V13.01,2013-08-06 18:59:00,
2013-08-06 15:01:00,77.0,71.1,29.98,SSW,200,0.0,15.0,82,0.00,,---,0.70,VWS V13.01,2013-08-06 19:01:00,
2013-08-06 15:03:00,77.0,71.1,29.98,SSW,202,0.0,9.0,82,0.00,,---,0.70,VWS V13.01,2013-08-06 19:03:00,
2013-08-06 15:04:00,76.9,71.3,29.98,SSW,202,4.0,9.0,83,0.00,,---,0.70,VWS V13.01,2013-08-06 19:04:00,
2013-08-06 15:05:00,76.8,71.2,29.98,SSW,203,0.0,9.0,83,0.00,,---,0.70,VWS V13.01,2013-08-06 19:05:00,
2013-08-06 15:07:00,76.9,71.7,29.98,SW,225,6.0,10.0,84,0.00,,---,0.70,VWS V13.01,2013-08-06 19:07:00,
2013-08-06 15:09:00,76.8,71.2,29.98,South,188,0.0,10.0,83,0.00,,---,0.70,VWS V13.01,2013-08-06 19:09:00,
2013-08-06 15:10:00,76.8,71.9,29.98,South,188,0.0,10.0,85,0.00,,---,0.70,VWS V13.01,2013-08-06 19:10:00,
2013-08-06 15:12:00,76.7,71.2,29.98,South,177,1.0,10.0,83,0.00,,---,0.70,VWS V13.01,2013-08-06 19:12:00,
2013-08-06 15:13:00,76.7,71.2,29.98,SSW,213,0.0,10.0,83,0.00,,---,0.70,VWS V13.01,2013-08-06 19:13:00,
2013-08-06 15:14:00,76.7,71.2,29.98,SW,217,0.0,10.0,83,0.00,,---,0.70,VWS V13.01,2013-08-06 19:14:00,
2013-08-06 15:15:00,76.7,71.2,29.98,SW,217,0.0,10.0,83,0.00,,---,0.70,VWS V13.01,2013-08-06 19:15:00,
2013-08-06 15:17:00,77.0,71.8,29.98,SSE,157,0.0,10.0,84,0.00,,---,0.70,VWS V13.01,2013-08-06 19:17:00,
2013-08-06 15:18:00,77.0,71.8,29.98,SSE,168,0.0,10.0,84,0.00,,---,0.70,VWS V13.01,2013-08-06 19:18:00,
2013-08-06 15:19:00,76.9,71.3,29.98,South,172,0.0,10.0,83,0.00,,---,0.70,VWS V13.01,2013-08-06 19:19:00,
2013-08-06 15:20:00,77.0,71.4,29.97,South,172,0.0,10.0,83,0.00,,---,0.70,VWS V13.01,2013-08-06 19:20:00,
2013-08-06 15:22:00,76.9,71.0,29.97,SSW,205,0.0,10.0,82,0.00,,---,0.70,VWS V13.01,2013-08-06 19:22:00,
2013-08-06 15:23:00,76.9,71.3,29.97,SSW,209,0.0,10.0,83,0.00,,---,0.70,VWS V13.01,2013-08-06 19:23:00,
2013-08-06 15:24:00,76.9,71.7,29.98,SSW,194,0.0,10.0,84,0.00,,---,0.70,VWS V13.01,2013-08-06 19:24:00,
2013-08-06 15:25:00,76.9,71.7,29.97,SSW,194,0.0,10.0,84,0.00,,---,0.70,VWS V13.01,2013-08-06 19:25:00,
2013-08-06 15:27:00,77.0,71.8,29.97,SSW,194,0.0,10.0,84,0.00,,---,0.70,VWS V13.01,2013-08-06 19:27:00,
2013-08-06 15:28:00,77.0,71.8,29.97,SW,227,0.0,10.0,84,0.00,,---,0.70,VWS V13.01,2013-08-06 19:28:00,
2013-08-06 15:29:00,76.9,71.7,29.97,SW,216,1.0,10.0,84,0.00,,---,0.70,VWS V13.01,2013-08-06 19:29:00,
2013-08-06 15:30:00,76.9,71.0,29.97,South,187,3.0,10.0,82,0.00,,---,0.70,VWS V13.01,2013-08-06 19:30:00,
2013-08-06 15:32:00,76.8,71.2,29.97,SSW,206,0.0,1.0,83,0.00,,---,0.70,VWS V13.01,2013-08-06 19:32:00,
2013-08-06 15:33:00,76.7,71.5,29.97,South,186,0.0,4.0,84,0.00,,---,0.70,VWS V13.01,2013-08-06 19:33:00,
2013-08-06 15:35:00,76.5,71.3,29.97,SSE,166,6.0,10.0,84,0.00,,---,0.70,VWS V13.01,2013-08-06 19:35:00,
2013-08-06 15:37:00,76.4,70.9,29.98,SW,221,1.0,10.0,83,0.00,,---,0.70,VWS V13.01,2013-08-06 19:37:00,
2013-08-06 15:38:00,76.4,71.2,29.98,SSW,209,3.0,10.0,84,0.00,,---,0.70,VWS V13.01,2013-08-06 19:38:00,
2013-08-06 15:40:00,76.4,71.2,29.98,SSE,149,0.0,10.0,84,0.00,,---,0.70,VWS V13.01,2013-08-06 19:40:00,
2013-08-06 15:42:00,76.4,71.2,29.98,South,178,4.0,10.0,84,0.00,,---,0.70,VWS V13.01,2013-08-06 19:42:00,
2013-08-06 15:43:00,76.5,71.3,29.98,WSW,249,1.0,10.0,84,0.00,,---,0.70,VWS V13.01,2013-08-06 19:43:00,
2013-08-06 15:45:00,76.6,71.4,29.97,SSW,203,1.0,10.0,84,0.00,,---,0.70,VWS V13.01,2013-08-06 19:45:00,
2013-08-06 15:46:00,76.6,71.4,29.98,SSW,209,0.0,10.0,84,0.00,,---,0.70,VWS V13.01,2013-08-06 19:46:00,
2013-08-06 15:48:00,76.7,71.5,29.98,SW,228,0.0,10.0,84,0.00,,---,0.70,VWS V13.01,2013-08-06 19:48:00,
2013-08-06 15:50:00,77.0,71.8,29.98,SW,231,0.0,10.0,84,0.00,,---,0.70,VWS V13.01,2013-08-06 19:50:00,
2013-08-06 15:51:00,77.0,71.8,29.97,SW,231,0.0,10.0,84,0.00,,---,0.70,VWS V13.01,2013-08-06 19:51:00,
2013-08-06 15:53:00,77.1,71.9,29.97,SSE,168,0.0,10.0,84,0.00,,---,0.70,VWS V13.01,2013-08-06 19:53:00,
2013-08-06 15:56:00,77.0,71.4,29.98,South,169,0.0,10.0,83,0.00,,---,0.70,VWS V13.01,2013-08-06 19:56:00,
2013-08-06 15:58:00,76.9,71.3,29.97,South,187,0.0,10.0,83,0.00,,---,0.70,VWS V13.01,2013-08-06 19:58:00,
2013-08-06 15:59:00,76.8,71.6,29.98,South,175,0.0,10.0,84,0.00,,---,0.70,VWS V13.01,2013-08-06 19:59:00,
2013-08-06 16:01:00,76.7,71.9,29.97,South,187,4.0,10.0,85,0.00,,---,0.70,VWS V13.01,2013-08-06 20:01:00,
2013-08-06 16:03:00,76.4,70.9,29.97,South,173,0.0,6.0,83,0.00,,---,0.70,VWS V13.01,2013-08-06 20:03:00,
2013-08-06 16:04:00,76.2,71.4,29.97,South,173,0.0,6.0,85,0.00,,---,0.70,VWS V13.01,2013-08-06 20:04:00,
2013-08-06 16:06:00,76.1,71.3,29.97,South,188,1.0,6.0,85,0.00,,---,0.70,VWS V13.01,2013-08-06 20:06:00,
2013-08-06 16:08:00,75.8,71.0,29.97,SW,221,2.0,8.0,85,0.00,,---,0.70,VWS V13.01,2013-08-06 20:08:00,
2013-08-06 16:09:00,75.7,70.9,29.97,SW,230,0.0,8.0,85,0.00,,---,0.70,VWS V13.01,2013-08-06 20:09:00,
2013-08-06 16:11:00,75.6,71.1,29.97,SSE,157,0.0,8.0,86,0.00,,---,0.70,VWS V13.01,2013-08-06 20:11:00,
2013-08-06 16:12:00,75.5,71.0,29.97,South,171,1.0,8.0,86,0.00,,---,0.70,VWS V13.01,2013-08-06 20:12:00,
2013-08-06 16:13:00,75.4,70.9,29.97,SSE,150,0.0,8.0,86,0.00,,---,0.70,VWS V13.01,2013-08-06 20:13:00,
2013-08-06 16:14:00,75.4,70.9,29.97,South,169,0.0,8.0,86,0.00,,---,0.70,VWS V13.01,2013-08-06 20:14:00,
2013-08-06 16:16:00,75.6,71.1,29.97,SE,145,0.0,8.0,86,0.00,,---,0.70,VWS V13.01,2013-08-06 20:16:00,
2013-08-06 16:17:00,75.7,71.6,29.97,SE,146,0.0,8.0,87,0.00,,---,0.70,VWS V13.01,2013-08-06 20:17:00,
2013-08-06 16:18:00,75.8,71.3,29.97,SSW,196,3.0,8.0,86,0.00,,---,0.70,VWS V13.01,2013-08-06 20:18:00,
2013-08-06 16:19:00,75.8,71.3,29.97,SW,227,3.0,8.0,86,0.00,,---,0.70,VWS V13.01,2013-08-06 20:19:00,
2013-08-06 16:21:00,75.9,71.4,29.97,SW,232,0.0,8.0,86,0.00,,---,0.70,VWS V13.01,2013-08-06 20:21:00,
2013-08-06 16:22:00,76.1,71.6,29.97,SSE,161,7.0,8.0,86,0.00,,---,0.70,VWS V13.01,2013-08-06 20:22:00,
2013-08-06 16:23:00,76.2,71.0,29.97,SW,218,3.0,11.0,84,0.00,,---,0.70,VWS V13.01,2013-08-06 20:23:00,
2013-08-06 16:24:00,76.2,71.0,29.97,SW,236,0.0,11.0,84,0.00,,---,0.70,VWS V13.01,2013-08-06 20:24:00,
2013-08-06 16:26:00,76.3,71.1,29.97,South,180,0.0,11.0,84,0.00,,---,0.70,VWS V13.01,2013-08-06 20:26:00,
2013-08-06 16:27:00,76.4,71.6,29.97,SSW,194,0.0,11.0,85,0.00,,---,0.70,VWS V13.01,2013-08-06 20:27:00,
2013-08-06 16:28:00,76.3,71.5,29.97,SSW,207,5.0,11.0,85,0.00,,---,0.70,VWS V13.01,2013-08-06 20:28:00,
2013-08-06 16:29:00,76.3,71.1,29.97,SSW,194,0.0,11.0,84,0.00,,---,0.70,VWS V13.01,2013-08-06 20:29:00,
2013-08-06 16:30:00,76.4,71.2,29.97,South,180,1.0,11.0,84,0.00,,---,0.70,VWS V13.01,2013-08-06 20:30:00,
2013-08-06 16:31:00,76.4,71.2,29.97,WSW,250,0.0,11.0,84,0.00,,---,0.70,VWS V13.01,2013-08-06 20:31:00,
2013-08-06 16:32:00,76.4,71.2,29.97,North,355,0.0,0.0,84,0.00,,---,0.70,VWS V13.01,2013-08-06 20:32:00,
2013-08-06 16:33:00,76.4,71.2,29.97,North,355,0.0,0.0,84,0.00,,---,0.70,VWS V13.01,2013-08-06 20:33:00,
2013-08-06 16:35:00,76.2,71.4,29.97,SSE,147,0.0,4.0,85,0.00,,---,0.70,VWS V13.01,2013-08-06 20:35:00,
2013-08-06 16:37:00,76.2,71.0,29.97,South,179,0.0,9.0,84,0.00,,---,0.70,VWS V13.01,2013-08-06 20:37:00,
2013-08-06 16:38:00,76.1,70.9,29.97,South,179,0.0,9.0,84,0.00,,---,0.70,VWS V13.01,2013-08-06 20:38:00,
2013-08-06 16:40:00,76.0,70.8,29.97,SW,222,5.0,11.0,84,0.00,,---,0.70,VWS V13.01,2013-08-06 20:40:00,
2013-08-06 16:42:00,75.8,70.3,29.97,SSE,161,6.0,11.0,83,0.00,,---,0.70,VWS V13.01,2013-08-06 20:42:00,
2013-08-06 16:43:00,75.8,71.0,29.97,South,173,0.0,11.0,85,0.00,,---,0.70,VWS V13.01,2013-08-06 20:43:00,
2013-08-06 16:45:00,75.7,70.9,29.97,South,181,0.0,11.0,85,0.00,,---,0.70,VWS V13.01,2013-08-06 20:45:00,
2013-08-06 16:47:00,75.6,70.8,29.97,SW,221,3.0,12.0,85,0.00,,---,0.70,VWS V13.01,2013-08-06 20:47:00,
2013-08-06 16:48:00,75.6,70.8,29.97,SSW,206,0.0,12.0,85,0.00,,---,0.70,VWS V13.01,2013-08-06 20:48:00,
2013-08-06 16:50:00,75.7,70.5,29.97,WSW,238,1.0,12.0,84,0.00,,---,0.70,VWS V13.01,2013-08-06 20:50:00,
2013-08-06 16:52:00,75.7,70.5,29.97,SW,221,2.0,12.0,84,0.00,,---,0.70,VWS V13.01,2013-08-06 20:52:00,
2013-08-06 16:53:00,75.7,70.5,29.97,SSE,168,10.0,12.0,84,0.00,,---,0.70,VWS V13.01,2013-08-06 20:53:00,
2013-08-06 16:55:00,75.6,70.4,29.97,South,173,0.0,12.0,84,0.00,,---,0.70,VWS V13.01,2013-08-06 20:55:00,
2013-08-06 16:57:00,75.6,70.4,29.97,South,188,2.0,12.0,84,0.00,,---,0.70,VWS V13.01,2013-08-06 20:57:00,
2013-08-06 16:58:00,75.6,70.4,29.97,South,180,0.0,12.0,84,0.00,,---,0.70,VWS V13.01,2013-08-06 20:58:00,
2013-08-06 17:00:00,75.7,70.5,29.97,South,186,0.0,12.0,84,0.00,,---,0.70,VWS V13.01,2013-08-06 21:00:00,
2013-08-06 17:02:00,75.7,70.5,29.97,West,281,0.0,3.0,84,0.00,,---,0.70,VWS V13.01,2013-08-06 21:02:00,
2013-08-06 17:03:00,75.7,70.5,29.97,WNW,282,0.0,3.0,84,0.00,,---,0.70,VWS V13.01,2013-08-06 21:03:00,
2013-08-06 17:05:00,75.6,70.8,29.96,SSW,211,1.0,4.0,85,0.00,,---,0.70,VWS V13.01,2013-08-06 21:05:00,
2013-08-06 17:08:00,75.5,70.3,29.96,SSW,211,0.0,4.0,84,0.00,,---,0.70,VWS V13.01,2013-08-06 21:08:00,
2013-08-06 17:10:00,75.7,70.9,29.96,SSW,209,0.0,4.0,85,0.00,,---,0.70,VWS V13.01,2013-08-06 21:10:00,
2013-08-06 17:13:00,75.8,71.0,29.96,SSW,202,0.0,4.0,85,0.00,,---,0.70,VWS V13.01,2013-08-06 21:13:00,
2013-08-06 17:14:00,75.8,70.6,29.97,SE,133,0.0,4.0,84,0.00,,---,0.70,VWS V13.01,2013-08-06 21:14:00,
2013-08-06 17:16:00,75.8,70.3,29.97,SSE,150,0.0,7.0,83,0.00,,---,0.70,VWS V13.01,2013-08-06 21:16:00,
2013-08-06 17:18:00,75.8,69.9,29.97,South,178,0.0,9.0,82,0.00,,---,0.70,VWS V13.01,2013-08-06 21:18:00,
2013-08-06 17:19:00,75.8,69.9,29.97,South,171,7.0,15.0,82,0.00,,---,0.70,VWS V13.01,2013-08-06 21:19:00,
2013-08-06 17:21:00,75.8,69.2,29.97,WSW,238,6.0,15.0,80,0.00,,---,0.70,VWS V13.01,2013-08-06 21:21:00,
2013-08-06 17:23:00,75.7,69.5,29.97,SSE,149,2.0,15.0,81,0.00,,---,0.70,VWS V13.01,2013-08-06 21:23:00,
2013-08-06 17:24:00,75.6,69.4,29.97,SSW,197,3.0,15.0,81,0.00,,---,0.70,VWS V13.01,2013-08-06 21:24:00,
2013-08-06 17:26:00,75.6,69.4,29.97,SSW,204,0.0,15.0,81,0.00,,---,0.70,VWS V13.01,2013-08-06 21:26:00,
2013-08-06 17:28:00,75.6,69.4,29.97,SE,144,0.0,15.0,81,0.00,,---,0.70,VWS V13.01,2013-08-06 21:28:00,
2013-08-06 17:29:00,75.5,69.6,29.97,SSW,209,5.0,15.0,82,0.00,,---,0.70,VWS V13.01,2013-08-06 21:29:00,
2013-08-06 17:31:00,75.5,69.3,29.97,South,184,1.0,15.0,81,0.00,,---,0.70,VWS V13.01,2013-08-06 21:31:00,
2013-08-06 17:33:00,75.4,69.5,29.97,SSW,212,2.0,9.0,82,0.00,,---,0.70,VWS V13.01,2013-08-06 21:33:00,
2013-08-06 17:34:00,75.4,69.5,29.97,SSW,213,1.0,9.0,82,0.00,,---,0.70,VWS V13.01,2013-08-06 21:34:00,
2013-08-06 17:35:00,75.4,69.2,29.97,SW,231,0.0,9.0,81,0.00,,---,0.70,VWS V13.01,2013-08-06 21:35:00,
2013-08-06 17:36:00,75.4,69.5,29.97,SW,231,0.0,9.0,82,0.00,,---,0.70,VWS V13.01,2013-08-06 21:36:00,
2013-08-06 17:38:00,75.2,69.7,29.97,SW,219,3.0,9.0,83,0.00,,---,0.70,VWS V13.01,2013-08-06 21:38:00,
2013-08-06 17:39:00,75.2,69.3,29.98,SW,219,0.0,9.0,82,0.00,,---,0.70,VWS V13.01,2013-08-06 21:39:00,
2013-08-06 17:40:00,75.3,69.4,29.98,SW,221,5.0,9.0,82,0.00,,---,0.70,VWS V13.01,2013-08-06 21:40:00,
2013-08-06 17:41:00,75.2,69.7,29.98,SW,234,0.0,9.0,83,0.00,,---,0.70,VWS V13.01,2013-08-06 21:41:00,
2013-08-06 17:43:00,75.3,69.8,29.98,WSW,237,0.0,9.0,83,0.00,,---,0.70,VWS V13.01,2013-08-06 21:43:00,
2013-08-06 17:44:00,75.3,69.8,29.98,WSW,237,0.0,9.0,83,0.00,,---,0.70,VWS V13.01,2013-08-06 21:44:00,
2013-08-06 17:45:00,75.2,69.3,29.98,SW,217,5.0,9.0,82,0.00,,---,0.70,VWS V13.01,2013-08-06 21:45:00,
2013-08-06 17:46:00,75.2,69.7,29.98,SW,227,0.0,9.0,83,0.00,,---,0.70,VWS V13.01,2013-08-06 21:46:00,
2013-08-06 17:48:00,75.1,69.6,29.97,SSW,205,0.0,9.0,83,0.00,,---,0.70,VWS V13.01,2013-08-06 21:48:00,
2013-08-06 17:49:00,75.2,69.7,29.97,SSW,207,4.0,9.0,83,0.00,,---,0.70,VWS V13.01,2013-08-06 21:49:00,
2013-08-06 17:51:00,75.1,69.6,29.97,SSW,208,0.0,9.0,83,0.00,,---,0.70,VWS V13.01,2013-08-06 21:51:00,
2013-08-06 17:53:00,75.2,69.7,29.98,SSW,209,0.0,9.0,83,0.00,,---,0.70,VWS V13.01,2013-08-06 21:53:00,
2013-08-06 17:54:00,75.2,70.0,29.98,SSW,209,0.0,9.0,84,0.00,,---,0.70,VWS V13.01,2013-08-06 21:54:00,
2013-08-06 17:55:00,75.2,70.0,29.97,SSW,209,0.0,9.0,84,0.00,,---,0.70,VWS V13.01,2013-08-06 21:55:00,
2013-08-06 17:56:00,75.3,69.8,29.97,SSW,209,0.0,9.0,83,0.00,,---,0.70,VWS V13.01,2013-08-06 21:56:00,
2013-08-06 17:57:00,75.3,70.1,29.97,SSW,209,0.0,9.0,84,0.00,,---,0.70,VWS V13.01,2013-08-06 21:57:00,
2013-08-06 17:59:00,75.3,70.1,29.98,SSW,211,2.0,9.0,84,0.00,,---,0.70,VWS V13.01,2013-08-06 21:59:00,
2013-08-06 18:00:00,75.3,70.1,29.98,SW,223,0.0,9.0,84,0.00,,---,0.70,VWS V13.01,2013-08-06 22:00:00,
2013-08-06 18:01:00,75.2,70.0,29.98,SSW,197,4.0,9.0,84,0.00,,---,0.70,VWS V13.01,2013-08-06 22:01:00,
2013-08-06 18:02:00,75.2,70.0,29.98,SSW,197,0.0,0.0,84,0.00,,---,0.70,VWS V13.01,2013-08-06 22:02:00,
2013-08-06 18:04:00,75.2,70.0,29.98,SSW,196,0.0,1.0,84,0.00,,---,0.70,VWS V13.01,2013-08-06 22:04:00,
2013-08-06 18:05:00,75.2,70.4,29.97,SSW,196,0.0,1.0,85,0.00,,---,0.70,VWS V13.01,2013-08-06 22:05:00,
2013-08-06 18:06:00,75.2,70.0,29.97,SSW,197,0.0,1.0,84,0.00,,---,0.70,VWS V13.01,2013-08-06 22:06:00,
2013-08-06 18:07:00,75.3,70.1,29.97,SSW,196,0.0,1.0,84,0.00,,---,0.70,VWS V13.01,2013-08-06 22:07:00,
2013-08-06 18:09:00,75.2,70.0,29.97,WSW,241,9.0,9.0,84,0.00,,---,0.70,VWS V13.01,2013-08-06 22:09:00,
2013-08-06 18:10:00,75.2,70.0,29.97,SW,214,6.0,9.0,84,0.00,,---,0.70,VWS V13.01,2013-08-06 22:10:00,
2013-08-06 18:11:00,75.2,70.0,29.97,South,184,0.0,9.0,84,0.00,,---,0.70,VWS V13.01,2013-08-06 22:11:00,
2013-08-06 18:12:00,75.2,70.0,29.97,South,184,0.0,9.0,84,0.00,,---,0.70,VWS V13.01,2013-08-06 22:12:00,
2013-08-06 18:14:00,75.1,70.3,29.97,SSE,161,0.0,9.0,85,0.00,,---,0.70,VWS V13.01,2013-08-06 22:14:00,
2013-08-06 18:15:00,75.0,70.2,29.97,SSW,202,3.0,9.0,85,0.00,,---,0.70,VWS V13.01,2013-08-06 22:15:00,
2013-08-06 18:16:00,74.9,70.1,29.97,SSW,209,1.0,10.0,85,0.00,,---,0.70,VWS V13.01,2013-08-06 22:16:00,
2013-08-06 18:17:00,74.9,70.1,29.97,SSW,212,2.0,10.0,85,0.00,,---,0.70,VWS V13.01,2013-08-06 22:17:00,
2013-08-06 18:19:00,75.0,70.2,29.97,SSW,213,0.0,10.0,85,0.00,,---,0.70,VWS V13.01,2013-08-06 22:19:00,
2013-08-06 18:20:00,74.9,69.7,29.97,SW,221,0.0,10.0,84,0.00,,---,0.70,VWS V13.01,2013-08-06 22:20:00,
2013-08-06 18:21:00,75.0,70.2,29.97,SW,221,0.0,10.0,85,0.00,,---,0.70,VWS V13.01,2013-08-06 22:21:00,
2013-08-06 18:22:00,74.9,70.1,29.97,SW,222,1.0,10.0,85,0.00,,---,0.70,VWS V13.01,2013-08-06 22:22:00,
2013-08-06 18:24:00,74.9,70.1,29.97,SW,222,0.0,10.0,85,0.00,,---,0.70,VWS V13.01,2013-08-06 22:24:00,
2013-08-06 18:25:00,74.9,70.1,29.97,SW,222,0.0,10.0,85,0.00,,---,0.70,VWS V13.01,2013-08-06 22:25:00,
2013-08-06 18:26:00,74.9,70.1,29.97,SW,222,0.0,10.0,85,0.00,,---,0.70,VWS V13.01,2013-08-06 22:26:00,
2013-08-06 18:27:00,74.8,70.0,29.97,SW,222,0.0,10.0,85,0.00,,---,0.70,VWS V13.01,2013-08-06 22:27:00,
2013-08-06 18:29:00,74.8,70.3,29.97,SW,222,0.0,10.0,86,0.00,,---,0.70,VWS V13.01,2013-08-06 22:29:00,
2013-08-06 18:31:00,74.8,70.3,29.97,SW,222,0.0,10.0,86,0.00,,---,0.70,VWS V13.01,2013-08-06 22:31:00,
2013-08-06 18:32:00,74.8,70.3,29.97,SW,222,0.0,0.0,86,0.00,,---,0.70,VWS V13.01,2013-08-06 22:32:00,
2013-08-06 18:34:00,74.8,70.3,29.97,SSW,211,0.0,5.0,86,0.00,,---,0.70,VWS V13.01,2013-08-06 22:34:00,
2013-08-06 18:36:00,74.8,70.7,29.97,SW,231,0.0,5.0,87,0.00,,---,0.70,VWS V13.01,2013-08-06 22:36:00,
2013-08-06 18:37:00,74.7,70.2,29.97,SW,230,0.0,5.0,86,0.00,,---,0.70,VWS V13.01,2013-08-06 22:37:00,
2013-08-06 18:38:00,74.7,70.2,29.97,SSW,202,0.0,9.0,86,0.00,,---,0.70,VWS V13.01,2013-08-06 22:38:00,
2013-08-06 18:39:00,74.7,70.2,29.97,SSW,209,0.0,9.0,86,0.00,,---,0.70,VWS V13.01,2013-08-06 22:39:00,
2013-08-06 18:41:00,74.7,70.2,29.97,SSW,205,3.0,9.0,86,0.00,,---,0.70,VWS V13.01,2013-08-06 22:41:00,
2013-08-06 18:42:00,74.7,70.2,29.97,SSW,207,0.0,9.0,86,0.00,,---,0.70,VWS V13.01,2013-08-06 22:42:00,
2013-08-06 18:44:00,74.8,70.3,29.97,SSW,206,7.0,9.0,86,0.00,,---,0.70,VWS V13.01,2013-08-06 22:44:00,
2013-08-06 18:46:00,74.8,70.3,29.97,WSW,239,2.0,9.0,86,0.00,,---,0.70,VWS V13.01,2013-08-06 22:46:00,
2013-08-06 18:47:00,74.8,70.3,29.97,SW,232,0.0,9.0,86,0.00,,---,0.70,VWS V13.01,2013-08-06 22:47:00,
2013-08-06 18:49:00,74.8,70.0,29.97,SW,215,1.0,9.0,85,0.00,,---,0.70,VWS V13.01,2013-08-06 22:49:00,
2013-08-06 18:51:00,74.7,69.6,29.97,SW,229,5.0,9.0,84,0.00,,---,0.70,VWS V13.01,2013-08-06 22:51:00,
2013-08-06 18:52:00,74.6,69.4,29.97,South,180,1.0,9.0,84,0.00,,---,0.70,VWS V13.01,2013-08-06 22:52:00,
2013-08-06 18:54:00,74.5,69.0,29.97,South,183,0.0,9.0,83,0.00,,---,0.70,VWS V13.01,2013-08-06 22:54:00,
2013-08-06 18:56:00,74.4,68.9,29.97,SW,220,4.0,9.0,83,0.00,,---,0.70,VWS V13.01,2013-08-06 22:56:00,
2013-08-06 18:57:00,74.4,68.9,29.97,WSW,246,0.0,9.0,83,0.00,,---,0.70,VWS V13.01,2013-08-06 22:57:00,
2013-08-06 18:59:00,74.2,68.7,29.97,SW,218,9.0,9.0,83,0.00,,---,0.70,VWS V13.01,2013-08-06 22:59:00,
2013-08-06 19:00:00,74.2,68.7,29.97,WSW,258,8.0,9.0,83,0.00,,---,0.70,VWS V13.01,2013-08-06 23:00:00,
2013-08-06 19:01:00,74.1,69.0,29.97,WSW,238,0.0,9.0,84,0.00,,---,0.70,VWS V13.01,2013-08-06 23:01:00,
2013-08-06 19:02:00,74.1,69.0,29.97,WSW,237,0.0,3.0,84,0.00,,---,0.70,VWS V13.01,2013-08-06 23:02:00,
2013-08-06 19:03:00,74.1,69.0,29.97,SSW,206,0.0,6.0,84,0.00,,---,0.70,VWS V13.01,2013-08-06 23:03:00,
2013-08-06 19:05:00,74.0,68.5,29.97,SSW,203,0.0,6.0,83,0.00,,---,0.70,VWS V13.01,2013-08-06 23:05:00,
2013-08-06 19:06:00,74.0,68.9,29.97,SSW,209,4.0,6.0,84,0.00,,---,0.70,VWS V13.01,2013-08-06 23:06:00,
2013-08-06 19:07:00,73.9,68.4,29.98,SSW,200,4.0,6.0,83,0.00,,---,0.70,VWS V13.01,2013-08-06 23:07:00,
2013-08-06 19:08:00,73.9,68.4,29.97,SSW,205,0.0,6.0,83,0.00,,---,0.70,VWS V13.01,2013-08-06 23:08:00,
2013-08-06 19:10:00,73.9,68.4,29.97,WSW,238,0.0,9.0,83,0.00,,---,0.70,VWS V13.01,2013-08-06 23:10:00,
2013-08-06 19:12:00,73.9,68.8,29.97,WSW,238,0.0,9.0,84,0.00,,---,0.70,VWS V13.01,2013-08-06 23:12:00,
2013-08-06 19:13:00,73.9,68.8,29.97,SSW,198,0.0,9.0,84,0.00,,---,0.70,VWS V13.01,2013-08-06 23:13:00,
2013-08-06 19:15:00,73.8,68.7,29.97,SSW,194,0.0,9.0,84,0.00,,---,0.70,VWS V13.01,2013-08-06 23:15:00,
2013-08-06 19:17:00,73.8,69.0,29.97,WSW,238,2.0,9.0,85,0.00,,---,0.70,VWS V13.01,2013-08-06 23:17:00,
2013-08-06 19:18:00,73.9,68.8,29.97,SW,232,0.0,9.0,84,0.00,,---,0.70,VWS V13.01,2013-08-06 23:18:00,
2013-08-06 19:20:00,73.9,68.8,29.97,SSW,213,0.0,9.0,84,0.00,,---,0.70,VWS V13.01,2013-08-06 23:20:00,
2013-08-06 19:22:00,73.9,68.8,29.97,South,180,4.0,9.0,84,0.00,,---,0.70,VWS V13.01,2013-08-06 23:22:00,
2013-08-06 19:23:00,73.9,68.8,29.97,South,184,8.0,12.0,84,0.00,,---,0.70,VWS V13.01,2013-08-06 23:23:00,
2013-08-06 19:25:00,73.8,68.7,29.97,South,190,2.0,12.0,84,0.00,,---,0.70,VWS V13.01,2013-08-06 23:25:00,
2013-08-06 19:26:00,73.8,68.7,29.97,South,187,0.0,12.0,84,0.00,,---,0.70,VWS V13.01,2013-08-06 23:26:00,
2013-08-06 19:27:00,73.7,68.6,29.97,SSE,167,0.0,12.0,84,0.00,,---,0.70,VWS V13.01,2013-08-06 23:27:00,
2013-08-06 19:28:00,73.7,68.9,29.97,SW,224,0.0,12.0,85,0.00,,---,0.70,VWS V13.01,2013-08-06 23:28:00,
2013-08-06 19:30:00,73.6,68.5,29.98,SSW,212,0.0,12.0,84,0.00,,---,0.70,VWS V13.01,2013-08-06 23:30:00,
2013-08-06 19:31:00,73.5,68.4,29.98,SSW,212,0.0,12.0,84,0.00,,---,0.70,VWS V13.01,2013-08-06 23:31:00,
2013-08-06 19:32:00,73.5,68.4,29.98,SSW,213,0.0,3.0,84,0.00,,---,0.70,VWS V13.01,2013-08-06 23:32:00,
2013-08-06 19:34:00,73.4,68.3,29.98,SSW,213,0.0,3.0,84,0.00,,---,0.70,VWS V13.01,2013-08-06 23:34:00,
2013-08-06 19:36:00,73.3,68.5,29.98,SSW,213,0.0,3.0,85,0.00,,---,0.70,VWS V13.01,2013-08-06 23:36:00,
2013-08-06 19:37:00,73.2,68.4,29.98,SSW,211,3.0,7.0,85,0.00,,---,0.70,VWS V13.01,2013-08-06 23:37:00,
2013-08-06 19:39:00,73.1,68.3,29.98,SSW,211,0.0,7.0,85,0.00,,---,0.70,VWS V13.01,2013-08-06 23:39:00,
2013-08-06 19:41:00,73.0,68.2,29.98,SSW,195,1.0,7.0,85,0.00,,---,0.70,VWS V13.01,2013-08-06 23:41:00,
2013-08-06 19:42:00,73.0,68.2,29.98,SSW,198,0.0,7.0,85,0.00,,---,0.70,VWS V13.01,2013-08-06 23:42:00,
2013-08-06 19:44:00,73.0,68.2,29.98,SSW,198,0.0,7.0,85,0.00,,---,0.70,VWS V13.01,2013-08-06 23:44:00,
2013-08-06 19:46:00,72.9,68.1,29.98,SSW,199,1.0,7.0,85,0.00,,---,0.70,VWS V13.01,2013-08-06 23:46:00,
2013-08-06 19:47:00,72.9,68.5,29.98,SSW,199,0.0,7.0,86,0.00,,---,0.70,VWS V13.01,2013-08-06 23:47:00,
2013-08-06 19:49:00,72.7,67.9,29.98,SSW,200,0.0,7.0,85,0.00,,---,0.70,VWS V13.01,2013-08-06 23:49:00,
2013-08-06 19:51:00,72.7,68.3,29.98,SSW,200,0.0,7.0,86,0.00,,---,0.70,VWS V13.01,2013-08-06 23:51:00,
2013-08-06 19:52:00,72.6,68.2,29.98,SSW,200,0.0,7.0,86,0.00,,---,0.70,VWS V13.01,2013-08-06 23:52:00,
2013-08-06 19:54:00,72.5,68.1,29.98,SSW,202,0.0,7.0,86,0.00,,---,0.70,VWS V13.01,2013-08-06 23:54:00,
2013-08-06 19:56:00,72.3,67.9,29.98,South,184,0.0,7.0,86,0.00,,---,0.70,VWS V13.01,2013-08-06 23:56:00,
2013-08-06 19:57:00,72.3,67.9,29.98,SSW,205,6.0,7.0,86,0.00,,---,0.70,VWS V13.01,2013-08-06 23:57:00,
2013-08-06 19:59:00,72.2,67.8,29.98,SW,228,1.0,8.0,86,0.00,,---,0.70,VWS V13.01,2013-08-06 23:59:00,
2013-08-06 20:01:00,72.2,67.8,29.98,SW,227,2.0,11.0,86,0.00,,---,0.70,VWS V13.01,2013-08-07 00:01:00,
2013-08-06 20:02:00,72.2,67.8,29.98,SW,219,0.0,0.0,86,0.00,,---,0.70,VWS V13.01,2013-08-07 00:02:00,
2013-08-06 20:05:00,72.2,67.8,29.98,SSW,210,0.0,7.0,86,0.00,,---,0.70,VWS V13.01,2013-08-07 00:05:00,
2013-08-06 20:06:00,72.2,67.8,29.98,South,177,5.0,7.0,86,0.00,,---,0.70,VWS V13.01,2013-08-07 00:06:00,
2013-08-06 20:07:00,72.2,67.8,29.98,West,272,0.0,7.0,86,0.00,,---,0.70,VWS V13.01,2013-08-07 00:07:00,
2013-08-06 20:10:00,72.1,67.7,29.98,WSW,252,2.0,11.0,86,0.00,,---,0.70,VWS V13.01,2013-08-07 00:10:00,
2013-08-06 20:12:00,72.1,67.7,29.98,SW,224,0.0,11.0,86,0.00,,---,0.70,VWS V13.01,2013-08-07 00:12:00,
2013-08-06 20:15:00,72.1,67.7,29.98,SW,224,0.0,11.0,86,0.00,,---,0.70,VWS V13.01,2013-08-07 00:15:00,
2013-08-06 20:17:00,71.9,67.8,29.98,SW,224,0.0,11.0,87,0.00,,---,0.70,VWS V13.01,2013-08-07 00:17:00,
2013-08-06 20:20:00,71.8,67.7,29.98,SSW,198,2.0,11.0,87,0.00,,---,0.70,VWS V13.01,2013-08-07 00:20:00,
2013-08-06 20:22:00,71.7,67.6,29.98,South,178,7.0,11.0,87,0.00,,---,0.70,VWS V13.01,2013-08-07 00:22:00,
2013-08-06 20:23:00,71.7,67.6,29.98,South,178,0.0,11.0,87,0.00,,---,0.70,VWS V13.01,2013-08-07 00:23:00,
2013-08-06 20:25:00,71.7,67.6,29.98,South,179,0.0,11.0,87,0.00,,---,0.70,VWS V13.01,2013-08-07 00:25:00,
2013-08-06 20:27:00,71.7,67.6,29.98,South,191,6.0,11.0,87,0.00,,---,0.70,VWS V13.01,2013-08-07 00:27:00,
2013-08-06 20:28:00,71.6,67.5,29.98,SSW,205,0.0,11.0,87,0.00,,---,0.70,VWS V13.01,2013-08-07 00:28:00,
2013-08-06 20:30:00,71.6,67.9,29.98,SSW,205,0.0,11.0,88,0.00,,---,0.70,VWS V13.01,2013-08-07 00:30:00,
2013-08-06 20:31:00,71.6,67.9,29.98,SSW,205,0.0,11.0,88,0.00,,---,0.70,VWS V13.01,2013-08-07 00:31:00,
2013-08-06 20:32:00,71.6,67.9,29.98,SSW,210,3.0,3.0,88,0.00,,---,0.70,VWS V13.01,2013-08-07 00:32:00,
2013-08-06 20:33:00,71.6,67.9,29.98,SSW,210,0.0,4.0,88,0.00,,---,0.70,VWS V13.01,2013-08-07 00:33:00,
2013-08-06 20:36:00,71.6,67.9,29.98,SSW,210,0.0,4.0,88,0.00,,---,0.70,VWS V13.01,2013-08-07 00:36:00,
2013-08-06 20:37:00,71.5,67.8,29.98,SSW,210,0.0,4.0,88,0.00,,---,0.70,VWS V13.01,2013-08-07 00:37:00,
2013-08-06 20:38:00,71.4,67.7,29.98,SSW,210,0.0,4.0,88,0.00,,---,0.70,VWS V13.01,2013-08-07 00:38:00,
2013-08-06 20:41:00,71.3,67.9,29.98,SSW,210,0.0,4.0,89,0.00,,---,0.70,VWS V13.01,2013-08-07 00:41:00,
2013-08-06 20:42:00,71.2,67.8,29.98,SSW,210,0.0,4.0,89,0.00,,---,0.70,VWS V13.01,2013-08-07 00:42:00,
2013-08-06 20:43:00,71.2,67.8,29.98,SSW,210,0.0,4.0,89,0.00,,---,0.70,VWS V13.01,2013-08-07 00:43:00,
2013-08-06 20:46:00,71.1,67.7,29.98,SSW,210,0.0,4.0,89,0.00,,---,0.70,VWS V13.01,2013-08-07 00:46:00,
2013-08-06 20:47:00,71.0,67.6,29.98,SSW,210,0.0,4.0,89,0.00,,---,0.70,VWS V13.01,2013-08-07 00:47:00,
2013-08-06 20:48:00,71.0,67.6,29.98,SSW,210,0.0,4.0,89,0.00,,---,0.70,VWS V13.01,2013-08-07 00:48:00,
2013-08-06 20:51:00,70.8,67.7,29.99,SSW,210,0.0,4.0,90,0.00,,---,0.70,VWS V13.01,2013-08-07 00:51:00,
2013-08-06 20:53:00,70.7,67.6,29.99,SSW,210,0.0,4.0,90,0.00,,---,0.70,VWS V13.01,2013-08-07 00:53:00,
2013-08-06 20:56:00,70.6,67.5,29.99,SSW,210,0.0,4.0,90,0.00,,---,0.70,VWS V13.01,2013-08-07 00:56:00,
2013-08-06 20:58:00,70.5,67.4,29.99,SSW,210,0.0,4.0,90,0.00,,---,0.70,VWS V13.01,2013-08-07 00:58:00,
2013-08-06 21:01:00,70.4,67.7,29.98,SSW,210,0.0,4.0,91,0.00,,---,0.70,VWS V13.01,2013-08-07 01:01:00,
2013-08-06 21:02:00,70.4,67.7,29.98,SSW,210,0.0,0.0,91,0.00,,---,0.70,VWS V13.01,2013-08-07 01:02:00,
2013-08-06 21:03:00,70.3,67.6,29.99,SSW,210,0.0,0.0,91,0.00,,---,0.70,VWS V13.01,2013-08-07 01:03:00,
2013-08-06 21:06:00,70.2,67.4,29.99,SSW,210,0.0,0.0,91,0.00,,---,0.70,VWS V13.01,2013-08-07 01:06:00,
2013-08-06 21:07:00,70.2,67.4,29.99,SSW,210,0.0,1.0,91,0.00,,---,0.70,VWS V13.01,2013-08-07 01:07:00,
2013-08-06 21:08:00,70.2,67.4,29.99,SSW,210,0.0,1.0,91,0.00,,---,0.70,VWS V13.01,2013-08-07 01:08:00,
2013-08-06 21:12:00,70.1,67.4,29.99,SSW,210,0.0,1.0,91,0.00,,---,0.70,VWS V13.01,2013-08-07 01:12:00,
2013-08-06 21:13:00,70.1,67.7,29.99,SSW,210,0.0,1.0,92,0.00,,---,0.70,VWS V13.01,2013-08-07 01:13:00,
2013-08-06 21:17:00,70.0,67.6,29.99,SSW,210,0.0,1.0,92,0.00,,---,0.70,VWS V13.01,2013-08-07 01:17:00,
2013-08-06 21:18:00,70.0,67.6,29.99,SW,217,0.0,3.0,92,0.00,,---,0.70,VWS V13.01,2013-08-07 01:18:00,
2013-08-06 21:19:00,69.9,67.5,29.99,SW,217,0.0,3.0,92,0.00,,---,0.70,VWS V13.01,2013-08-07 01:19:00,
2013-08-06 21:22:00,69.9,67.5,29.99,SW,217,0.0,3.0,92,0.00,,---,0.70,VWS V13.01,2013-08-07 01:22:00,
2013-08-06 21:23:00,69.9,67.5,29.99,SW,217,0.0,3.0,92,0.00,,---,0.70,VWS V13.01,2013-08-07 01:23:00,
2013-08-06 21:24:00,69.9,67.5,29.99,SW,217,0.0,3.0,92,0.00,,---,0.70,VWS V13.01,2013-08-07 01:24:00,
2013-08-06 21:27:00,69.8,67.4,29.99,SW,217,0.0,3.0,92,0.00,,---,0.70,VWS V13.01,2013-08-07 01:27:00,
2013-08-06 21:28:00,69.8,67.4,29.99,SW,217,0.0,3.0,92,0.00,,---,0.70,VWS V13.01,2013-08-07 01:28:00,
2013-08-06 21:29:00,69.8,67.4,29.99,SW,217,0.0,3.0,92,0.00,,---,0.70,VWS V13.01,2013-08-07 01:29:00,
2013-08-06 21:32:00,69.7,67.3,29.99,SW,217,0.0,0.0,92,0.00,,---,0.70,VWS V13.01,2013-08-07 01:32:00,
2013-08-06 21:33:00,69.7,67.3,29.99,SW,217,0.0,0.0,92,0.00,,---,0.70,VWS V13.01,2013-08-07 01:33:00,
2013-08-06 21:34:00,69.7,67.3,29.99,SW,217,0.0,0.0,92,0.00,,---,0.70,VWS V13.01,2013-08-07 01:34:00,
2013-08-06 21:37:00,69.6,67.5,29.99,SW,217,0.0,1.0,93,0.00,,---,0.70,VWS V13.01,2013-08-07 01:37:00,
2013-08-06 21:38:00,69.6,67.5,29.99,SW,217,0.0,1.0,93,0.00,,---,0.70,VWS V13.01,2013-08-07 01:38:00,
2013-08-06 21:39:00,69.6,67.5,29.99,SW,217,0.0,1.0,93,0.00,,---,0.70,VWS V13.01,2013-08-07 01:39:00,
2013-08-06 21:42:00,69.7,67.6,29.99,SW,217,0.0,2.0,93,0.00,,---,0.70,VWS V13.01,2013-08-07 01:42:00,
2013-08-06 21:43:00,69.7,67.6,29.99,SW,217,0.0,2.0,93,0.00,,---,0.70,VWS V13.01,2013-08-07 01:43:00,
2013-08-06 21:44:00,69.7,67.6,29.99,SW,217,0.0,2.0,93,0.00,,---,0.70,VWS V13.01,2013-08-07 01:44:00,
2013-08-06 21:45:00,69.7,67.6,29.99,SW,217,0.0,2.0,93,0.00,,---,0.70,VWS V13.01,2013-08-07 01:45:00,
2013-08-06 21:48:00,69.6,67.5,30.00,SW,217,0.0,2.0,93,0.00,,---,0.70,VWS V13.01,2013-08-07 01:48:00,
2013-08-06 21:49:00,69.5,67.4,30.00,SW,217,0.0,2.0,93,0.00,,---,0.70,VWS V13.01,2013-08-07 01:49:00,
2013-08-06 21:50:00,69.5,67.4,30.00,SW,217,0.0,2.0,93,0.00,,---,0.70,VWS V13.01,2013-08-07 01:50:00,
2013-08-06 21:53:00,69.4,67.6,30.00,SW,217,0.0,2.0,94,0.00,,---,0.70,VWS V13.01,2013-08-07 01:53:00,
2013-08-06 21:54:00,69.4,67.6,30.00,SW,217,0.0,2.0,94,0.00,,---,0.70,VWS V13.01,2013-08-07 01:54:00,
2013-08-06 21:55:00,69.4,67.6,30.00,SW,217,0.0,2.0,94,0.00,,---,0.70,VWS V13.01,2013-08-07 01:55:00,
2013-08-06 21:58:00,69.3,67.5,30.00,SW,217,0.0,2.0,94,0.00,,---,0.70,VWS V13.01,2013-08-07 01:58:00,
2013-08-06 21:59:00,69.3,67.5,30.00,SW,217,0.0,2.0,94,0.00,,---,0.70,VWS V13.01,2013-08-07 01:59:00,
2013-08-06 22:00:00,69.3,67.5,29.99,SW,217,0.0,2.0,94,0.00,,---,0.70,VWS V13.01,2013-08-07 02:00:00,
2013-08-06 22:03:00,69.3,67.5,29.99,SW,217,0.0,0.0,94,0.00,,---,0.70,VWS V13.01,2013-08-07 02:03:00,
2013-08-06 22:04:00,69.2,67.4,29.99,SW,217,0.0,1.0,94,0.00,,---,0.70,VWS V13.01,2013-08-07 02:04:00,
2013-08-06 22:05:00,69.2,67.4,29.99,SW,217,0.0,1.0,94,0.00,,---,0.70,VWS V13.01,2013-08-07 02:05:00,
2013-08-06 22:08:00,69.2,67.4,29.99,SW,217,0.0,1.0,94,0.00,,---,0.70,VWS V13.01,2013-08-07 02:08:00,
2013-08-06 22:09:00,69.2,67.4,29.99,SW,217,0.0,1.0,94,0.00,,---,0.70,VWS V13.01,2013-08-07 02:09:00,
2013-08-06 22:10:00,69.2,67.4,29.99,SW,217,0.0,1.0,94,0.00,,---,0.70,VWS V13.01,2013-08-07 02:10:00,
2013-08-06 22:13:00,69.3,67.5,30.00,SW,217,0.0,1.0,94,0.00,,---,0.70,VWS V13.01,2013-08-07 02:13:00,
2013-08-06 22:14:00,69.3,67.5,30.00,SW,217,0.0,1.0,94,0.00,,---,0.70,VWS V13.01,2013-08-07 02:14:00,
2013-08-06 22:15:00,69.3,67.5,30.00,SW,217,0.0,1.0,94,0.00,,---,0.70,VWS V13.01,2013-08-07 02:15:00,
2013-08-06 22:18:00,69.3,67.5,30.00,SW,217,0.0,1.0,94,0.00,,---,0.70,VWS V13.01,2013-08-07 02:18:00,
2013-08-06 22:19:00,69.3,67.5,30.00,SW,217,0.0,1.0,94,0.00,,---,0.70,VWS V13.01,2013-08-07 02:19:00,
2013-08-06 22:20:00,69.3,67.5,30.00,SW,217,0.0,1.0,94,0.00,,---,0.70,VWS V13.01,2013-08-07 02:20:00,
2013-08-06 22:21:00,69.3,67.5,30.00,SW,217,0.0,1.0,94,0.00,,---,0.70,VWS V13.01,2013-08-07 02:21:00,
2013-08-06 22:24:00,69.2,67.7,30.00,SW,217,0.0,1.0,95,0.00,,---,0.70,VWS V13.01,2013-08-07 02:24:00,
2013-08-06 22:25:00,69.2,67.7,30.00,SW,217,0.0,1.0,95,0.00,,---,0.70,VWS V13.01,2013-08-07 02:25:00,
2013-08-06 22:26:00,69.2,67.7,30.00,SW,217,0.0,1.0,95,0.00,,---,0.70,VWS V13.01,2013-08-07 02:26:00,
2013-08-06 22:29:00,69.3,67.8,30.00,SW,217,0.0,1.0,95,0.00,,---,0.70,VWS V13.01,2013-08-07 02:29:00,
2013-08-06 22:30:00,69.3,67.8,30.00,SW,217,0.0,1.0,95,0.00,,---,0.70,VWS V13.01,2013-08-07 02:30:00,
2013-08-06 22:31:00,69.3,67.8,30.00,SW,217,0.0,1.0,95,0.00,,---,0.70,VWS V13.01,2013-08-07 02:31:00,
2013-08-06 22:33:00,69.4,67.9,30.00,SW,217,0.0,0.0,95,0.00,,---,0.70,VWS V13.01,2013-08-07 02:33:00,
2013-08-06 22:35:00,69.4,67.9,30.00,SW,217,0.0,0.0,95,0.00,,---,0.70,VWS V13.01,2013-08-07 02:35:00,
2013-08-06 22:36:00,69.4,67.9,30.00,SW,217,0.0,0.0,95,0.00,,---,0.70,VWS V13.01,2013-08-07 02:36:00,
2013-08-06 22:39:00,69.4,67.9,30.00,SW,217,0.0,0.0,95,0.00,,---,0.70,VWS V13.01,2013-08-07 02:39:00,
2013-08-06 22:40:00,69.4,67.9,30.00,SW,217,0.0,0.0,95,0.00,,---,0.70,VWS V13.01,2013-08-07 02:40:00,
2013-08-06 22:41:00,69.4,67.9,30.00,SW,217,0.0,0.0,95,0.00,,---,0.70,VWS V13.01,2013-08-07 02:41:00,
2013-08-06 22:44:00,69.5,68.0,30.00,SW,217,0.0,0.0,95,0.00,,---,0.70,VWS V13.01,2013-08-07 02:44:00,
2013-08-06 22:45:00,69.5,68.0,30.00,SW,217,0.0,0.0,95,0.00,,---,0.70,VWS V13.01,2013-08-07 02:45:00,
2013-08-06 22:46:00,69.6,68.1,30.00,SW,217,0.0,0.0,95,0.00,,---,0.70,VWS V13.01,2013-08-07 02:46:00,
2013-08-06 22:49:00,69.6,68.1,30.00,SW,217,0.0,0.0,95,0.00,,---,0.70,VWS V13.01,2013-08-07 02:49:00,
2013-08-06 22:50:00,69.6,68.1,30.00,SW,217,0.0,0.0,95,0.00,,---,0.70,VWS V13.01,2013-08-07 02:50:00,
2013-08-06 22:51:00,69.7,68.2,30.00,SW,217,0.0,0.0,95,0.00,,---,0.70,VWS V13.01,2013-08-07 02:51:00,
2013-08-06 22:54:00,69.7,68.2,30.00,SW,217,0.0,0.0,95,0.00,,---,0.70,VWS V13.01,2013-08-07 02:54:00,
2013-08-06 22:55:00,69.7,68.2,30.01,SW,217,0.0,0.0,95,0.00,,---,0.70,VWS V13.01,2013-08-07 02:55:00,
2013-08-06 22:56:00,69.7,68.2,30.00,SW,217,0.0,0.0,95,0.00,,---,0.70,VWS V13.01,2013-08-07 02:56:00,
2013-08-06 22:59:00,69.8,68.3,30.00,SW,217,0.0,0.0,95,0.00,,---,0.70,VWS V13.01,2013-08-07 02:59:00,
2013-08-06 23:00:00,69.8,68.3,30.00,SW,217,0.0,0.0,95,0.00,,---,0.70,VWS V13.01,2013-08-07 03:00:00,
2013-08-06 23:01:00,69.8,68.3,30.00,SW,217,0.0,0.0,95,0.00,,---,0.70,VWS V13.01,2013-08-07 03:01:00,
2013-08-06 23:04:00,69.9,68.4,30.00,SW,217,0.0,0.0,95,0.00,,---,0.70,VWS V13.01,2013-08-07 03:04:00,
2013-08-06 23:05:00,69.9,68.4,30.00,SW,217,0.0,0.0,95,0.00,,---,0.70,VWS V13.01,2013-08-07 03:05:00,
2013-08-06 23:06:00,69.9,68.4,30.00,SW,217,0.0,0.0,95,0.00,,---,0.70,VWS V13.01,2013-08-07 03:06:00,
2013-08-06 23:07:00,69.9,68.4,30.00,SW,217,0.0,0.0,95,0.00,,---,0.70,VWS V13.01,2013-08-07 03:07:00,
2013-08-06 23:09:00,69.9,68.4,30.00,SW,217,0.0,0.0,95,0.00,,---,0.70,VWS V13.01,2013-08-07 03:09:00,
2013-08-06 23:10:00,69.9,68.4,30.00,SW,217,0.0,0.0,95,0.00,,---,0.70,VWS V13.01,2013-08-07 03:10:00,
2013-08-06 23:11:00,69.9,68.4,30.00,SW,217,0.0,0.0,95,0.00,,---,0.70,VWS V13.01,2013-08-07 03:11:00,
2013-08-06 23:13:00,69.9,68.4,30.00,SW,217,0.0,0.0,95,0.00,,---,0.70,VWS V13.01,2013-08-07 03:13:00,
2013-08-06 23:14:00,69.9,68.4,30.00,SW,217,0.0,0.0,95,0.00,,---,0.70,VWS V13.01,2013-08-07 03:14:00,
2013-08-06 23:15:00,69.9,68.4,30.00,SW,217,0.0,0.0,95,0.00,,---,0.70,VWS V13.01,2013-08-07 03:15:00,
2013-08-06 23:16:00,69.9,68.4,30.00,SW,217,0.0,0.0,95,0.00,,---,0.70,VWS V13.01,2013-08-07 03:16:00,
2013-08-06 23:18:00,69.9,68.4,30.00,SW,217,0.0,0.0,95,0.00,,---,0.70,VWS V13.01,2013-08-07 03:18:00,
2013-08-06 23:19:00,69.9,68.4,30.00,SW,217,0.0,0.0,95,0.00,,---,0.70,VWS V13.01,2013-08-07 03:19:00,
2013-08-06 23:20:00,70.0,68.5,30.00,SW,217,0.0,0.0,95,0.00,,---,0.70,VWS V13.01,2013-08-07 03:20:00,
2013-08-06 23:21:00,70.0,68.5,30.00,SW,217,0.0,0.0,95,0.00,,---,0.70,VWS V13.01,2013-08-07 03:21:00,
2013-08-06 23:23:00,70.0,68.5,30.00,SW,217,0.0,0.0,95,0.00,,---,0.70,VWS V13.01,2013-08-07 03:23:00,
2013-08-06 23:24:00,70.0,68.5,30.00,SW,217,0.0,0.0,95,0.00,,---,0.70,VWS V13.01,2013-08-07 03:24:00,
2013-08-06 23:26:00,70.1,68.6,30.00,SW,217,0.0,0.0,95,0.00,,---,0.70,VWS V13.01,2013-08-07 03:26:00,
2013-08-06 23:29:00,70.1,68.6,30.00,SW,217,0.0,0.0,95,0.00,,---,0.70,VWS V13.01,2013-08-07 03:29:00,
2013-08-06 23:30:00,70.1,68.6,30.00,SW,217,0.0,0.0,95,0.00,,---,0.70,VWS V13.01,2013-08-07 03:30:00,
2013-08-06 23:31:00,70.1,68.6,30.00,SW,217,0.0,0.0,95,0.00,,---,0.70,VWS V13.01,2013-08-07 03:31:00,
2013-08-06 23:34:00,70.2,68.7,30.00,SW,217,0.0,3.0,95,0.00,,---,0.70,VWS V13.01,2013-08-07 03:34:00,
2013-08-06 23:35:00,70.2,68.7,30.00,SW,217,0.0,3.0,95,0.00,,---,0.70,VWS V13.01,2013-08-07 03:35:00,
2013-08-06 23:36:00,70.2,68.7,30.00,SW,217,0.0,3.0,95,0.00,,---,0.70,VWS V13.01,2013-08-07 03:36:00,
2013-08-06 23:39:00,70.2,68.7,30.00,SW,217,0.0,3.0,95,0.00,,---,0.70,VWS V13.01,2013-08-07 03:39:00,
2013-08-06 23:40:00,70.2,68.4,30.00,SW,217,0.0,3.0,94,0.00,,---,0.70,VWS V13.01,2013-08-07 03:40:00,
2013-08-06 23:41:00,70.3,68.5,30.00,SW,217,0.0,3.0,94,0.00,,---,0.70,VWS V13.01,2013-08-07 03:41:00,
2013-08-06 23:42:00,70.3,68.5,30.00,SW,217,0.0,3.0,94,0.00,,---,0.70,VWS V13.01,2013-08-07 03:42:00,
2013-08-06 23:44:00,70.3,68.5,30.00,SW,217,0.0,3.0,94,0.00,,---,0.70,VWS V13.01,2013-08-07 03:44:00,
2013-08-06 23:45:00,70.3,68.5,30.00,SW,217,0.0,3.0,94,0.00,,---,0.70,VWS V13.01,2013-08-07 03:45:00,
2013-08-06 23:46:00,70.4,68.6,30.00,SW,217,0.0,3.0,94,0.00,,---,0.70,VWS V13.01,2013-08-07 03:46:00,
2013-08-06 23:47:00,70.4,68.6,30.00,SW,217,0.0,3.0,94,0.00,,---,0.70,VWS V13.01,2013-08-07 03:47:00,
2013-08-06 23:50:00,70.4,68.3,30.00,SW,217,0.0,3.0,93,0.00,,---,0.70,VWS V13.01,2013-08-07 03:50:00,
2013-08-06 23:51:00,70.5,68.4,30.00,SW,217,0.0,3.0,93,0.00,,---,0.70,VWS V13.01,2013-08-07 03:51:00,
2013-08-06 23:52:00,70.5,68.4,30.00,SW,217,0.0,3.0,93,0.00,,---,0.70,VWS V13.01,2013-08-07 03:52:00,
2013-08-06 23:55:00,70.6,68.5,30.00,SW,217,0.0,3.0,93,0.00,,---,0.70,VWS V13.01,2013-08-07 03:55:00,
2013-08-06 23:56:00,70.6,68.5,30.00,SW,217,0.0,3.0,93,0.00,,---,0.70,VWS V13.01,2013-08-07 03:56:00,
2013-08-06 23:57:00,70.6,68.5,30.00,SW,217,0.0,3.0,93,0.00,,---,0.70,VWS V13.01,2013-08-07 03:57:00,